Observation data for Snyder SSW on 08/20/2019      Previous  Date       Current Mesonet Observations  Soil Data  Daily Summary Page  Observations in Plain Language
KWT1 200500Z 14007KT 29/16 A3004 RMK A01 T02910161  RH  045%=      5-min Rain = 0
KWT1 200501Z 14006KT 29/16 A3004 RMK A01 T02910160  RH  045%=      5-min Rain = 0
KWT1 200502Z 14006KT 29/16 A3004 RMK A01 T02920161  RH  045%=      5-min Rain = 0
KWT1 200503Z 14006KT 29/16 A3004 RMK A01 T02920161  RH  045%=      5-min Rain = 0
KWT1 200504Z 14007KT 29/16 A3004 RMK A01 T02910161  RH  045%=      5-min Rain = 0
KWT1 200505Z 14006KT 29/16 A3004 RMK A01 T02910161  RH  045%=      5-min Rain = 0
KWT1 200506Z 14007KT 29/16 A3004 RMK A01 T02910161  RH  045%=      5-min Rain = 0
KWT1 200507Z 14007KT 29/16 A3004 RMK A01 T02910161  RH  045%=      5-min Rain = 0
KWT1 200508Z 14006KT 29/16 A3004 RMK A01 T02920161  RH  045%=      5-min Rain = 0
KWT1 200509Z 14007KT 29/16 A3004 RMK A01 T02920161  RH  045%=      5-min Rain = 0
KWT1 200510Z 14006KT 29/16 A3004 RMK A01 T02930161  RH  045%=      5-min Rain = 0
KWT1 200511Z 14007KT 29/16 A3004 RMK A01 T02930161  RH  045%=      5-min Rain = 0
KWT1 200512Z 14006KT 29/16 A3004 RMK A01 T02930161  RH  045%=      5-min Rain = 0
KWT1 200513Z 15006KT 29/16 A3004 RMK A01 T02930161  RH  045%=      5-min Rain = 0
KWT1 200514Z 15006KT 29/16 A3004 RMK A01 T02930161  RH  045%=      5-min Rain = 0
KWT1 200515Z 15006KT 29/16 A3004 RMK A01 T02920161  RH  045%=      5-min Rain = 0
KWT1 200516Z 15006KT 29/16 A3004 RMK A01 T02920161  RH  045%=      5-min Rain = 0
KWT1 200517Z 15006KT 29/16 A3004 RMK A01 T02910161  RH  045%=      5-min Rain = 0
KWT1 200518Z 15007KT 29/16 A3004 RMK A01 T02900161  RH  046%=      5-min Rain = 0
KWT1 200519Z 15007KT 29/16 A3004 RMK A01 T02900161  RH  046%=      5-min Rain = 0
KWT1 200520Z 14007KT 29/16 A3004 RMK A01 T02900161  RH  046%=      5-min Rain = 0
KWT1 200521Z 14006KT 29/16 A3004 RMK A01 T02900161  RH  046%=      5-min Rain = 0
KWT1 200522Z 14007KT 29/16 A3004 RMK A01 T02900161  RH  046%=      5-min Rain = 0
KWT1 200523Z 14007KT 29/16 A3004 RMK A01 T02900161  RH  046%=      5-min Rain = 0
KWT1 200524Z 13007KT 29/16 A3004 RMK A01 T02900161  RH  046%=      5-min Rain = 0
KWT1 200525Z 14006KT 29/16 A3004 RMK A01 T02900161  RH  046%=      5-min Rain = 0
KWT1 200526Z 14007KT 29/16 A3004 RMK A01 T02900162  RH  046%=      5-min Rain = 0
KWT1 200527Z 14006KT 29/16 A3004 RMK A01 T02890161  RH  046%=      5-min Rain = 0
KWT1 200528Z 14006KT 29/16 A3004 RMK A01 T02900161  RH  046%=      5-min Rain = 0
KWT1 200529Z 14007KT 29/16 A3004 RMK A01 T02900161  RH  046%=      5-min Rain = 0
KWT1 200530Z 14007KT 29/16 A3004 RMK A01 T02900161  RH  046%=      5-min Rain = 0
KWT1 200531Z 14005KT 29/16 A3004 RMK A01 T02900161  RH  046%=      5-min Rain = 0
KWT1 200532Z 14006KT 29/16 A3004 RMK A01 T02900162  RH  046%=      5-min Rain = 0
KWT1 200533Z 14006KT 29/16 A3004 RMK A01 T02900162  RH  046%=      5-min Rain = 0
KWT1 200534Z 15006KT 29/16 A3004 RMK A01 T02900162  RH  046%=      5-min Rain = 0
KWT1 200535Z 14006KT 29/16 A3004 RMK A01 T02900162  RH  046%=      5-min Rain = 0
KWT1 200536Z 14006KT 29/16 A3004 RMK A01 T02900162  RH  046%=      5-min Rain = 0
KWT1 200537Z 14006KT 29/16 A3004 RMK A01 T02890161  RH  046%=      5-min Rain = 0
KWT1 200538Z 14006KT 29/16 A3004 RMK A01 T02890162  RH  046%=      5-min Rain = 0
KWT1 200539Z 15006KT 29/16 A3004 RMK A01 T02880162  RH  046%=      5-min Rain = 0
KWT1 200540Z 14006KT 29/16 A3004 RMK A01 T02880162  RH  046%=      5-min Rain = 0
KWT1 200541Z 14006KT 29/16 A3004 RMK A01 T02880162  RH  046%=      5-min Rain = 0
KWT1 200542Z 14007KT 29/16 A3004 RMK A01 T02880162  RH  046%=      5-min Rain = 0
KWT1 200543Z 15006KT 29/16 A3004 RMK A01 T02880162  RH  046%=      5-min Rain = 0
KWT1 200544Z 14006KT 29/16 A3004 RMK A01 T02880162  RH  046%=      5-min Rain = 0
KWT1 200545Z 14006KT 29/16 A3004 RMK A01 T02880162  RH  046%=      5-min Rain = 0
KWT1 200546Z 15007KT 29/16 A3004 RMK A01 T02880162  RH  046%=      5-min Rain = 0
KWT1 200547Z 14006KT 29/16 A3004 RMK A01 T02880162  RH  046%=      5-min Rain = 0
KWT1 200548Z 14006KT 29/16 A3004 RMK A01 T02880162  RH  046%=      5-min Rain = 0
KWT1 200549Z 14007KT 29/16 A3004 RMK A01 T02880162  RH  046%=      5-min Rain = 0
KWT1 200550Z 14006KT 29/16 A3004 RMK A01 T02890163  RH  046%=      5-min Rain = 0
KWT1 200551Z 15006KT 29/16 A3004 RMK A01 T02890163  RH  046%=      5-min Rain = 0
KWT1 200552Z 15006KT 29/16 A3004 RMK A01 T02890162  RH  046%=      5-min Rain = 0
KWT1 200553Z 14007KT 29/16 A3004 RMK A01 T02890162  RH  046%=      5-min Rain = 0
KWT1 200554Z 15007KT 29/16 A3004 RMK A01 T02890162  RH  046%=      5-min Rain = 0
KWT1 200555Z 14007KT 29/16 A3004 RMK A01 T02890163  RH  046%=      5-min Rain = 0
KWT1 200556Z 14007KT 29/16 A3004 RMK A01 T02900163  RH  046%=      5-min Rain = 0
KWT1 200557Z 15007KT 29/16 A3004 RMK A01 T02900163  RH  046%=      5-min Rain = 0
KWT1 200558Z 14008KT 29/16 A3004 RMK A01 T02900163  RH  046%=      5-min Rain = 0
KWT1 200559Z 15008KT 29/16 A3004 RMK A01 T02900163  RH  046%=      5-min Rain = 0
KWT1 200600Z 14008KT 29/16 A3004 RMK A01 T02910164  RH  046%=      5-min Rain = 0
KWT1 200601Z 14008KT 29/16 A3004 RMK A01 T02920164  RH  046%=      5-min Rain = 0
KWT1 200602Z 14008KT 29/16 A3004 RMK A01 T02920164  RH  046%=      5-min Rain = 0
KWT1 200603Z 14008KT 29/16 A3004 RMK A01 T02920164  RH  046%=      5-min Rain = 0
KWT1 200604Z 14008KT 29/16 A3004 RMK A01 T02920164  RH  046%=      5-min Rain = 0
KWT1 200605Z 14008KT 29/16 A3004 RMK A01 T02920164  RH  046%=      5-min Rain = 0
KWT1 200606Z 15008KT 29/16 A3004 RMK A01 T02920164  RH  046%=      5-min Rain = 0
KWT1 200607Z 14008KT 29/16 A3004 RMK A01 T02920164  RH  046%=      5-min Rain = 0
KWT1 200608Z 15008KT 29/17 A3004 RMK A01 T02920165  RH  046%=      5-min Rain = 0
KWT1 200609Z 14008KT 29/16 A3004 RMK A01 T02910164  RH  046%=      5-min Rain = 0
KWT1 200610Z 15007KT 29/17 A3004 RMK A01 T02920165  RH  046%=      5-min Rain = 0
KWT1 200611Z 14008KT 29/17 A3004 RMK A01 T02920165  RH  046%=      5-min Rain = 0
KWT1 200612Z 14008KT 29/17 A3004 RMK A01 T02920165  RH  046%=      5-min Rain = 0
KWT1 200613Z 14007KT 29/17 A3004 RMK A01 T02910165  RH  046%=      5-min Rain = 0
KWT1 200614Z 15009KT 29/17 A3004 RMK A01 T02910165  RH  047%=      5-min Rain = 0
KWT1 200615Z 14008KT 29/17 A3004 RMK A01 T02910165  RH  047%=      5-min Rain = 0
KWT1 200616Z 14009KT 29/17 A3004 RMK A01 T02910165  RH  047%=      5-min Rain = 0
KWT1 200617Z 15008KT 29/17 A3004 RMK A01 T02910165  RH  047%=      5-min Rain = 0
KWT1 200618Z 15008KT 29/17 A3004 RMK A01 T02920165  RH  046%=      5-min Rain = 0
KWT1 200619Z 15009KT 29/17 A3004 RMK A01 T02920165  RH  046%=      5-min Rain = 0
KWT1 200620Z 15009KT 29/17 A3004 RMK A01 T02920166  RH  046%=      5-min Rain = 0
KWT1 200621Z 15009KT 29/17 A3004 RMK A01 T02920165  RH  046%=      5-min Rain = 0
KWT1 200622Z 15009KT 29/17 A3004 RMK A01 T02920166  RH  046%=      5-min Rain = 0
KWT1 200623Z 15009KT 29/17 A3004 RMK A01 T02920166  RH  046%=      5-min Rain = 0
KWT1 200624Z 15009KT 29/17 A3004 RMK A01 T02920166  RH  046%=      5-min Rain = 0
KWT1 200625Z 15010KT 29/17 A3004 RMK A01 T02920165  RH  046%=      5-min Rain = 0
KWT1 200626Z 14010KT 29/17 A3004 RMK A01 T02930166  RH  046%=      5-min Rain = 0
KWT1 200627Z 15010KT 29/17 A3004 RMK A01 T02930166  RH  046%=      5-min Rain = 0
KWT1 200628Z 14009KT 29/17 A3004 RMK A01 T02940166  RH  046%=      5-min Rain = 0
KWT1 200629Z 15009KT 29/17 A3004 RMK A01 T02940166  RH  046%=      5-min Rain = 0
KWT1 200630Z 15011KT 29/17 A3004 RMK A01 T02940166  RH  046%=      5-min Rain = 0
KWT1 200631Z 15009KT 29/17 A3004 RMK A01 T02940166  RH  046%=      5-min Rain = 0
KWT1 200632Z 15009KT 29/17 A3004 RMK A01 T02940165  RH  046%=      5-min Rain = 0
KWT1 200633Z 15008KT 29/17 A3004 RMK A01 T02940166  RH  046%=      5-min Rain = 0
KWT1 200634Z 14008KT 29/17 A3004 RMK A01 T02940166  RH  046%=      5-min Rain = 0
KWT1 200635Z 15009KT 29/17 A3004 RMK A01 T02930165  RH  046%=      5-min Rain = 0
KWT1 200636Z 15010KT 29/17 A3004 RMK A01 T02930166  RH  046%=      5-min Rain = 0
KWT1 200637Z 15008KT 29/17 A3004 RMK A01 T02920165  RH  046%=      5-min Rain = 0
KWT1 200638Z 15008KT 29/17 A3004 RMK A01 T02930166  RH  046%=      5-min Rain = 0
KWT1 200639Z 15010KT 29/17 A3004 RMK A01 T02930166  RH  046%=      5-min Rain = 0
KWT1 200640Z 15010KT 29/17 A3004 RMK A01 T02930165  RH  046%=      5-min Rain = 0
KWT1 200641Z 15009KT 29/17 A3004 RMK A01 T02930166  RH  046%=      5-min Rain = 0
KWT1 200642Z 15008KT 29/17 A3004 RMK A01 T02930165  RH  046%=      5-min Rain = 0
KWT1 200643Z 15008KT 29/17 A3004 RMK A01 T02930166  RH  046%=      5-min Rain = 0
KWT1 200644Z 15010KT 29/17 A3004 RMK A01 T02920165  RH  046%=      5-min Rain = 0
KWT1 200645Z 15009KT 29/17 A3004 RMK A01 T02920166  RH  046%=      5-min Rain = 0
KWT1 200646Z 15009KT 29/17 A3004 RMK A01 T02920165  RH  046%=      5-min Rain = 0
KWT1 200647Z 15011KT 29/17 A3004 RMK A01 T02920165  RH  046%=      5-min Rain = 0
KWT1 200648Z 15010KT 29/17 A3004 RMK A01 T02920165  RH  046%=      5-min Rain = 0
KWT1 200649Z 15009KT 29/17 A3004 RMK A01 T02920165  RH  046%=      5-min Rain = 0
KWT1 200650Z 15010KT 29/17 A3004 RMK A01 T02920165  RH  046%=      5-min Rain = 0
KWT1 200651Z 15009KT 29/17 A3004 RMK A01 T02920165  RH  046%=      5-min Rain = 0
KWT1 200652Z 16009KT 29/17 A3004 RMK A01 T02920165  RH  046%=      5-min Rain = 0
KWT1 200653Z 16009KT 29/17 A3004 RMK A01 T02920165  RH  046%=      5-min Rain = 0
KWT1 200654Z 15011KT 29/17 A3004 RMK A01 T02920165  RH  046%=      5-min Rain = 0
KWT1 200655Z 15010KT 29/17 A3004 RMK A01 T02920165  RH  046%=      5-min Rain = 0
KWT1 200656Z 15010KT 29/17 A3004 RMK A01 T02920165  RH  046%=      5-min Rain = 0
KWT1 200657Z 15010KT 29/17 A3004 RMK A01 T02920165  RH  046%=      5-min Rain = 0
KWT1 200658Z 15010KT 29/17 A3004 RMK A01 T02920165  RH  046%=      5-min Rain = 0
KWT1 200659Z 15010KT 29/17 A3004 RMK A01 T02920165  RH  046%=      5-min Rain = 0
KWT1 200700Z 15012KT 29/17 A3004 RMK A01 T02910165  RH  046%=      5-min Rain = 0
KWT1 200701Z 15009KT 29/17 A3004 RMK A01 T02910165  RH  046%=      5-min Rain = 0
KWT1 200702Z 15009KT 29/17 A3004 RMK A01 T02910165  RH  047%=      5-min Rain = 0
KWT1 200703Z 16010KT 29/17 A3004 RMK A01 T02910165  RH  047%=      5-min Rain = 0
KWT1 200704Z 15009KT 29/17 A3004 RMK A01 T02910165  RH  047%=      5-min Rain = 0
KWT1 200705Z 15009KT 29/17 A3004 RMK A01 T02900165  RH  047%=      5-min Rain = 0
KWT1 200706Z 15013KT 29/17 A3004 RMK A01 T02900165  RH  047%=      5-min Rain = 0
KWT1 200707Z 16012KT 29/16 A3004 RMK A01 T02900164  RH  047%=      5-min Rain = 0
KWT1 200708Z 16009KT 29/17 A3004 RMK A01 T02910165  RH  047%=      5-min Rain = 0
KWT1 200709Z 16011KT 29/17 A3004 RMK A01 T02910165  RH  047%=      5-min Rain = 0
KWT1 200710Z 15010G15KT 29/17 A3004 RMK A01 T02900165  RH  047%=      5-min Rain = 0
KWT1 200711Z 16011KT 29/17 A3004 RMK A01 T02900165  RH  047%=      5-min Rain = 0
KWT1 200712Z 16010KT 29/17 A3004 RMK A01 T02900165  RH  047%=      5-min Rain = 0
KWT1 200713Z 16009KT 29/17 A3004 RMK A01 T02900165  RH  047%=      5-min Rain = 0
KWT1 200714Z 16010KT 29/17 A3004 RMK A01 T02890165  RH  047%=      5-min Rain = 0
KWT1 200715Z 15009KT 29/17 A3004 RMK A01 T02890165  RH  047%=      5-min Rain = 0
KWT1 200716Z 16011KT 29/17 A3004 RMK A01 T02890165  RH  047%=      5-min Rain = 0
KWT1 200717Z 16010KT 29/17 A3004 RMK A01 T02890165  RH  047%=      5-min Rain = 0
KWT1 200718Z 16008KT 29/17 A3004 RMK A01 T02880165  RH  047%=      5-min Rain = 0
KWT1 200719Z 16009KT 29/17 A3004 RMK A01 T02880165  RH  047%=      5-min Rain = 0
KWT1 200720Z 16010KT 29/17 A3004 RMK A01 T02880165  RH  047%=      5-min Rain = 0
KWT1 200721Z 16009KT 29/17 A3004 RMK A01 T02880165  RH  047%=      5-min Rain = 0
KWT1 200722Z 16009KT 29/17 A3004 RMK A01 T02880165  RH  047%=      5-min Rain = 0
KWT1 200723Z 16008KT 29/17 A3004 RMK A01 T02870165  RH  048%=      5-min Rain = 0
KWT1 200724Z 16009KT 29/17 A3004 RMK A01 T02870165  RH  048%=      5-min Rain = 0
KWT1 200725Z 16008KT 29/17 A3005 RMK A01 T02860165  RH  048%=      5-min Rain = 0
KWT1 200726Z 16008KT 29/17 A3005 RMK A01 T02860165  RH  048%=      5-min Rain = 0
KWT1 200727Z 17008KT 29/17 A3005 RMK A01 T02860165  RH  048%=      5-min Rain = 0
KWT1 200728Z 16010KT 29/17 A3005 RMK A01 T02860165  RH  048%=      5-min Rain = 0
KWT1 200729Z 17008KT 29/17 A3005 RMK A01 T02860165  RH  048%=      5-min Rain = 0
KWT1 200730Z 17008KT 29/17 A3005 RMK A01 T02860165  RH  048%=      5-min Rain = 0
KWT1 200731Z 17010KT 29/17 A3005 RMK A01 T02860165  RH  048%=      5-min Rain = 0
KWT1 200732Z 16010KT 29/17 A3005 RMK A01 T02850165  RH  048%=      5-min Rain = 0
KWT1 200733Z 16009KT 29/17 A3005 RMK A01 T02850165  RH  048%=      5-min Rain = 0
KWT1 200734Z 16010KT 29/17 A3005 RMK A01 T02850165  RH  048%=      5-min Rain = 0
KWT1 200735Z 16011KT 29/17 A3005 RMK A01 T02850165  RH  048%=      5-min Rain = 0
KWT1 200736Z 16008KT 29/17 A3005 RMK A01 T02850165  RH  048%=      5-min Rain = 0
KWT1 200737Z 17009KT 29/17 A3005 RMK A01 T02850165  RH  048%=      5-min Rain = 0
KWT1 200738Z 17009KT 28/17 A3005 RMK A01 T02840165  RH  048%=      5-min Rain = 0
KWT1 200739Z 17007KT 28/17 A3005 RMK A01 T02840165  RH  049%=      5-min Rain = 0
KWT1 200740Z 17009KT 28/17 A3005 RMK A01 T02830165  RH  049%=      5-min Rain = 0
KWT1 200741Z 16010KT 28/17 A3005 RMK A01 T02830165  RH  049%=      5-min Rain = 0
KWT1 200742Z 17008KT 28/17 A3005 RMK A01 T02820165  RH  049%=      5-min Rain = 0
KWT1 200743Z 17008KT 28/17 A3005 RMK A01 T02820165  RH  049%=      5-min Rain = 0
KWT1 200744Z 17007KT 28/17 A3005 RMK A01 T02820165  RH  049%=      5-min Rain = 0
KWT1 200745Z 17007KT 28/17 A3005 RMK A01 T02810165  RH  049%=      5-min Rain = 0
KWT1 200746Z 16008KT 28/17 A3005 RMK A01 T02810165  RH  049%=      5-min Rain = 0
KWT1 200747Z 17008KT 28/17 A3005 RMK A01 T02800165  RH  050%=      5-min Rain = 0
KWT1 200748Z 16007KT 28/17 A3005 RMK A01 T02800165  RH  050%=      5-min Rain = 0
KWT1 200749Z 17008KT 28/17 A3005 RMK A01 T02800165  RH  050%=      5-min Rain = 0
KWT1 200750Z 16008KT 28/17 A3005 RMK A01 T02790165  RH  050%=      5-min Rain = 0
KWT1 200751Z 16007KT 28/17 A3005 RMK A01 T02790165  RH  050%=      5-min Rain = 0
KWT1 200752Z 17008KT 28/17 A3005 RMK A01 T02780165  RH  050%=      5-min Rain = 0
KWT1 200753Z 16007KT 28/17 A3005 RMK A01 T02780165  RH  050%=      5-min Rain = 0
KWT1 200754Z 17007KT 28/17 A3005 RMK A01 T02780165  RH  050%=      5-min Rain = 0
KWT1 200755Z 17007KT 28/17 A3005 RMK A01 T02780165  RH  050%=      5-min Rain = 0
KWT1 200756Z 17006KT 28/17 A3005 RMK A01 T02770165  RH  051%=      5-min Rain = 0
KWT1 200757Z 17006KT 28/17 A3005 RMK A01 T02770165  RH  051%=      5-min Rain = 0
KWT1 200758Z 17007KT 28/17 A3005 RMK A01 T02760165  RH  051%=      5-min Rain = 0
KWT1 200759Z 17006KT 28/17 A3005 RMK A01 T02760165  RH  051%=      5-min Rain = 0
KWT1 200800Z 17007KT 28/17 A3005 RMK A01 T02750165  RH  051%=      5-min Rain = 0
KWT1 200801Z 17007KT 28/17 A3005 RMK A01 T02750165  RH  051%=      5-min Rain = 0
KWT1 200802Z 17007KT 28/17 A3005 RMK A01 T02750165  RH  051%=      5-min Rain = 0
KWT1 200803Z 17007KT 28/17 A3005 RMK A01 T02750165  RH  051%=      5-min Rain = 0
KWT1 200804Z 17007KT 27/17 A3005 RMK A01 T02740165  RH  051%=      5-min Rain = 0
KWT1 200805Z 17007KT 27/17 A3005 RMK A01 T02740165  RH  051%=      5-min Rain = 0
KWT1 200806Z 17007KT 27/17 A3005 RMK A01 T02740165  RH  051%=      5-min Rain = 0
KWT1 200807Z 17007KT 27/17 A3005 RMK A01 T02740165  RH  052%=      5-min Rain = 0
KWT1 200808Z 17008KT 27/17 A3005 RMK A01 T02730165  RH  052%=      5-min Rain = 0
KWT1 200809Z 17007KT 27/17 A3005 RMK A01 T02730165  RH  052%=      5-min Rain = 0
KWT1 200810Z 17006KT 27/17 A3005 RMK A01 T02730165  RH  052%=      5-min Rain = 0
KWT1 200811Z 17007KT 27/17 A3005 RMK A01 T02720165  RH  052%=      5-min Rain = 0
KWT1 200812Z 17007KT 27/17 A3005 RMK A01 T02710165  RH  052%=      5-min Rain = 0
KWT1 200813Z 18006KT 27/17 A3005 RMK A01 T02710165  RH  052%=      5-min Rain = 0
KWT1 200814Z 18006KT 27/17 A3005 RMK A01 T02710165  RH  052%=      5-min Rain = 0
KWT1 200815Z 17007KT 27/17 A3005 RMK A01 T02710165  RH  052%=      5-min Rain = 0
KWT1 200816Z 17007KT 27/17 A3005 RMK A01 T02700165  RH  052%=      5-min Rain = 0
KWT1 200817Z 18007KT 27/17 A3005 RMK A01 T02700165  RH  052%=      5-min Rain = 0
KWT1 200818Z 17006KT 27/17 A3005 RMK A01 T02700165  RH  053%=      5-min Rain = 0
KWT1 200819Z 18006KT 27/17 A3005 RMK A01 T02700165  RH  053%=      5-min Rain = 0
KWT1 200820Z 18006KT 27/17 A3005 RMK A01 T02690165  RH  053%=      5-min Rain = 0
KWT1 200821Z 18006KT 27/17 A3005 RMK A01 T02690165  RH  053%=      5-min Rain = 0
KWT1 200822Z 18006KT 27/17 A3005 RMK A01 T02680165  RH  053%=      5-min Rain = 0
KWT1 200823Z 18006KT 27/17 A3005 RMK A01 T02680165  RH  053%=      5-min Rain = 0
KWT1 200824Z 18006KT 27/17 A3005 RMK A01 T02670165  RH  053%=      5-min Rain = 0
KWT1 200825Z 18006KT 27/16 A3005 RMK A01 T02670164  RH  053%=      5-min Rain = 0
KWT1 200826Z 18005KT 27/17 A3005 RMK A01 T02670165  RH  054%=      5-min Rain = 0
KWT1 200827Z 18006KT 27/17 A3005 RMK A01 T02660165  RH  054%=      5-min Rain = 0
KWT1 200828Z 18006KT 27/16 A3005 RMK A01 T02660164  RH  054%=      5-min Rain = 0
KWT1 200829Z 18007KT 27/17 A3005 RMK A01 T02660165  RH  054%=      5-min Rain = 0
KWT1 200830Z 18006KT 27/17 A3005 RMK A01 T02660165  RH  054%=      5-min Rain = 0
KWT1 200831Z 18006KT 27/17 A3005 RMK A01 T02650165  RH  054%=      5-min Rain = 0
KWT1 200832Z 18006KT 27/17 A3005 RMK A01 T02650165  RH  054%=      5-min Rain = 0
KWT1 200833Z 17006KT 27/17 A3005 RMK A01 T02650165  RH  054%=      5-min Rain = 0
KWT1 200834Z 18006KT 26/17 A3005 RMK A01 T02640165  RH  054%=      5-min Rain = 0
KWT1 200835Z 18006KT 26/17 A3005 RMK A01 T02640165  RH  054%=      5-min Rain = 0
KWT1 200836Z 17006KT 27/17 A3005 RMK A01 T02650165  RH  054%=      5-min Rain = 0
KWT1 200837Z 18006KT 26/17 A3005 RMK A01 T02640165  RH  054%=      5-min Rain = 0
KWT1 200838Z 18005KT 26/17 A3005 RMK A01 T02630165  RH  055%=      5-min Rain = 0
KWT1 200839Z 18006KT 26/17 A3005 RMK A01 T02630165  RH  055%=      5-min Rain = 0
KWT1 200840Z 18006KT 26/17 A3005 RMK A01 T02630165  RH  055%=      5-min Rain = 0
KWT1 200841Z 18006KT 26/17 A3005 RMK A01 T02630165  RH  055%=      5-min Rain = 0
KWT1 200842Z 18006KT 26/17 A3005 RMK A01 T02620165  RH  055%=      5-min Rain = 0
KWT1 200843Z 18006KT 26/17 A3005 RMK A01 T02620165  RH  055%=      5-min Rain = 0
KWT1 200844Z 18006KT 26/17 A3005 RMK A01 T02610165  RH  055%=      5-min Rain = 0
KWT1 200845Z 18006KT 26/17 A3005 RMK A01 T02610165  RH  055%=      5-min Rain = 0
KWT1 200846Z 18006KT 26/17 A3005 RMK A01 T02600165  RH  055%=      5-min Rain = 0
KWT1 200847Z 18005KT 26/16 A3005 RMK A01 T02600164  RH  056%=      5-min Rain = 0
KWT1 200848Z 19006KT 26/16 A3005 RMK A01 T02590164  RH  056%=      5-min Rain = 0
KWT1 200849Z 19006KT 26/16 A3005 RMK A01 T02590164  RH  056%=      5-min Rain = 0
KWT1 200850Z 18006KT 26/17 A3005 RMK A01 T02590165  RH  056%=      5-min Rain = 0
KWT1 200851Z 18006KT 26/16 A3005 RMK A01 T02580164  RH  056%=      5-min Rain = 0
KWT1 200852Z 18006KT 26/16 A3005 RMK A01 T02580164  RH  056%=      5-min Rain = 0
KWT1 200853Z 18007KT 26/17 A3005 RMK A01 T02580165  RH  056%=      5-min Rain = 0
KWT1 200854Z 18006KT 26/16 A3005 RMK A01 T02580164  RH  056%=      5-min Rain = 0
KWT1 200855Z 18007KT 26/17 A3005 RMK A01 T02580165  RH  056%=      5-min Rain = 0
KWT1 200856Z 18006KT 26/17 A3005 RMK A01 T02580165  RH  056%=      5-min Rain = 0
KWT1 200857Z 18006KT 26/17 A3005 RMK A01 T02580165  RH  056%=      5-min Rain = 0
KWT1 200858Z 18007KT 26/17 A3005 RMK A01 T02580165  RH  056%=      5-min Rain = 0
KWT1 200859Z 18006KT 26/17 A3005 RMK A01 T02580165  RH  056%=      5-min Rain = 0
KWT1 200900Z 18006KT 26/17 A3005 RMK A01 T02580165  RH  056%=      5-min Rain = 0
KWT1 200901Z 18006KT 26/17 A3005 RMK A01 T02570165  RH  056%=      5-min Rain = 0
KWT1 200902Z 18006KT 26/17 A3005 RMK A01 T02570165  RH  057%=      5-min Rain = 0
KWT1 200903Z 18006KT 26/17 A3005 RMK A01 T02570165  RH  057%=      5-min Rain = 0
KWT1 200904Z 18007KT 26/17 A3005 RMK A01 T02570165  RH  057%=      5-min Rain = 0
KWT1 200905Z 18007KT 26/17 A3005 RMK A01 T02570165  RH  057%=      5-min Rain = 0
KWT1 200906Z 18006KT 26/17 A3005 RMK A01 T02570165  RH  057%=      5-min Rain = 0
KWT1 200907Z 18007KT 26/17 A3005 RMK A01 T02570165  RH  057%=      5-min Rain = 0
KWT1 200908Z 18007KT 26/17 A3005 RMK A01 T02570165  RH  057%=      5-min Rain = 0
KWT1 200909Z 18007KT 26/17 A3005 RMK A01 T02570165  RH  057%=      5-min Rain = 0
KWT1 200910Z 18007KT 26/17 A3005 RMK A01 T02570165  RH  057%=      5-min Rain = 0
KWT1 200911Z 18007KT 26/17 A3005 RMK A01 T02570165  RH  057%=      5-min Rain = 0
KWT1 200912Z 18007KT 26/17 A3005 RMK A01 T02570165  RH  057%=      5-min Rain = 0
KWT1 200913Z 18007KT 26/17 A3005 RMK A01 T02570165  RH  057%=      5-min Rain = 0
KWT1 200914Z 18006KT 26/17 A3005 RMK A01 T02570165  RH  057%=      5-min Rain = 0
KWT1 200915Z 18006KT 26/17 A3005 RMK A01 T02570165  RH  057%=      5-min Rain = 0
KWT1 200916Z 18006KT 26/17 A3005 RMK A01 T02570165  RH  057%=      5-min Rain = 0
KWT1 200917Z 18006KT 26/17 A3005 RMK A01 T02570165  RH  057%=      5-min Rain = 0
KWT1 200918Z 18006KT 26/17 A3005 RMK A01 T02570165  RH  057%=      5-min Rain = 0
KWT1 200919Z 17006KT 26/17 A3005 RMK A01 T02570165  RH  057%=      5-min Rain = 0
KWT1 200920Z 18006KT 26/17 A3005 RMK A01 T02570165  RH  057%=      5-min Rain = 0
KWT1 200921Z 18006KT 26/17 A3005 RMK A01 T02570165  RH  057%=      5-min Rain = 0
KWT1 200922Z 18006KT 26/17 A3005 RMK A01 T02570165  RH  057%=      5-min Rain = 0
KWT1 200923Z 18006KT 26/17 A3005 RMK A01 T02570165  RH  057%=      5-min Rain = 0
KWT1 200924Z 18006KT 26/17 A3005 RMK A01 T02570165  RH  057%=      5-min Rain = 0
KWT1 200925Z 18006KT 26/17 A3005 RMK A01 T02570166  RH  057%=      5-min Rain = 0
KWT1 200926Z 18006KT 26/17 A3005 RMK A01 T02570165  RH  057%=      5-min Rain = 0
KWT1 200927Z 18006KT 26/17 A3005 RMK A01 T02570166  RH  057%=      5-min Rain = 0
KWT1 200928Z 18006KT 26/17 A3005 RMK A01 T02570166  RH  057%=      5-min Rain = 0
KWT1 200929Z 18006KT 26/17 A3005 RMK A01 T02570166  RH  057%=      5-min Rain = 0
KWT1 200930Z 18006KT 26/17 A3005 RMK A01 T02570166  RH  057%=      5-min Rain = 0
KWT1 200931Z 19006KT 26/17 A3005 RMK A01 T02560166  RH  057%=      5-min Rain = 0
KWT1 200932Z 18006KT 26/17 A3005 RMK A01 T02560166  RH  057%=      5-min Rain = 0
KWT1 200933Z 19006KT 26/17 A3005 RMK A01 T02560166  RH  057%=      5-min Rain = 0
KWT1 200934Z 19006KT 26/17 A3005 RMK A01 T02560166  RH  057%=      5-min Rain = 0
KWT1 200935Z 19006KT 26/17 A3005 RMK A01 T02560166  RH  057%=      5-min Rain = 0
KWT1 200936Z 19005KT 26/17 A3005 RMK A01 T02550165  RH  058%=      5-min Rain = 0
KWT1 200937Z 19006KT 25/17 A3005 RMK A01 T02540165  RH  058%=      5-min Rain = 0
KWT1 200938Z 19006KT 25/17 A3005 RMK A01 T02530165  RH  058%=      5-min Rain = 0
KWT1 200939Z 19006KT 25/16 A3005 RMK A01 T02520164  RH  058%=      5-min Rain = 0
KWT1 200940Z 19006KT 25/16 A3005 RMK A01 T02510164  RH  059%=      5-min Rain = 0
KWT1 200941Z 19006KT 25/16 A3005 RMK A01 T02500164  RH  059%=      5-min Rain = 0
KWT1 200942Z 19006KT 25/16 A3005 RMK A01 T02500164  RH  059%=      5-min Rain = 0
KWT1 200943Z 19006KT 25/17 A3005 RMK A01 T02500165  RH  059%=      5-min Rain = 0
KWT1 200944Z 18006KT 25/17 A3005 RMK A01 T02490165  RH  059%=      5-min Rain = 0
KWT1 200945Z 19006KT 25/16 A3005 RMK A01 T02490164  RH  059%=      5-min Rain = 0
KWT1 200946Z 18006KT 25/17 A3005 RMK A01 T02480165  RH  060%=      5-min Rain = 0
KWT1 200947Z 19006KT 25/17 A3005 RMK A01 T02490165  RH  060%=      5-min Rain = 0
KWT1 200948Z 19006KT 25/17 A3005 RMK A01 T02490165  RH  060%=      5-min Rain = 0
KWT1 200949Z 19006KT 25/16 A3005 RMK A01 T02480164  RH  060%=      5-min Rain = 0
KWT1 200950Z 19006KT 25/16 A3005 RMK A01 T02480164  RH  060%=      5-min Rain = 0
KWT1 200951Z 19006KT 25/16 A3005 RMK A01 T02480164  RH  060%=      5-min Rain = 0
KWT1 200952Z 19006KT 25/16 A3005 RMK A01 T02480164  RH  060%=      5-min Rain = 0
KWT1 200953Z 19006KT 25/16 A3005 RMK A01 T02470164  RH  060%=      5-min Rain = 0
KWT1 200954Z 19006KT 25/16 A3005 RMK A01 T02470164  RH  060%=      5-min Rain = 0
KWT1 200955Z 19006KT 25/16 A3005 RMK A01 T02470164  RH  060%=      5-min Rain = 0
KWT1 200956Z 19006KT 25/16 A3005 RMK A01 T02470164  RH  060%=      5-min Rain = 0
KWT1 200957Z 19005KT 25/16 A3005 RMK A01 T02460164  RH  060%=      5-min Rain = 0
KWT1 200958Z 19005KT 25/16 A3005 RMK A01 T02460164  RH  060%=      5-min Rain = 0
KWT1 200959Z 19005KT 25/16 A3005 RMK A01 T02460164  RH  060%=      5-min Rain = 0
KWT1 201000Z 18005KT 25/16 A3005 RMK A01 T02450164  RH  061%=      5-min Rain = 0
KWT1 201001Z 18006KT 25/17 A3005 RMK A01 T02450165  RH  061%=      5-min Rain = 0
KWT1 201002Z 18006KT 24/16 A3005 RMK A01 T02440164  RH  061%=      5-min Rain = 0
KWT1 201003Z 18006KT 24/16 A3005 RMK A01 T02440164  RH  061%=      5-min Rain = 0
KWT1 201004Z 18006KT 24/16 A3005 RMK A01 T02440164  RH  061%=      5-min Rain = 0
KWT1 201005Z 18006KT 24/16 A3005 RMK A01 T02440164  RH  061%=      5-min Rain = 0
KWT1 201006Z 18006KT 24/16 A3005 RMK A01 T02440164  RH  061%=      5-min Rain = 0
KWT1 201007Z 18006KT 24/16 A3005 RMK A01 T02430164  RH  061%=      5-min Rain = 0
KWT1 201008Z 18006KT 24/16 A3005 RMK A01 T02430164  RH  061%=      5-min Rain = 0
KWT1 201009Z 18006KT 24/16 A3005 RMK A01 T02430164  RH  061%=      5-min Rain = 0
KWT1 201010Z 18006KT 24/16 A3005 RMK A01 T02430164  RH  061%=      5-min Rain = 0
KWT1 201011Z 18006KT 24/16 A3005 RMK A01 T02430164  RH  062%=      5-min Rain = 0
KWT1 201012Z 18006KT 24/16 A3005 RMK A01 T02420164  RH  062%=      5-min Rain = 0
KWT1 201013Z 18006KT 24/16 A3005 RMK A01 T02420164  RH  062%=      5-min Rain = 0
KWT1 201014Z 18006KT 24/16 A3005 RMK A01 T02420164  RH  062%=      5-min Rain = 0
KWT1 201015Z 18006KT 24/16 A3005 RMK A01 T02420164  RH  062%=      5-min Rain = 0
KWT1 201016Z 19006KT 24/16 A3005 RMK A01 T02420164  RH  062%=      5-min Rain = 0
KWT1 201017Z 19006KT 24/16 A3005 RMK A01 T02420164  RH  062%=      5-min Rain = 0
KWT1 201018Z 19006KT 24/16 A3005 RMK A01 T02430164  RH  062%=      5-min Rain = 0
KWT1 201019Z 19006KT 24/16 A3005 RMK A01 T02420164  RH  062%=      5-min Rain = 0
KWT1 201020Z 18006KT 24/16 A3005 RMK A01 T02420164  RH  062%=      5-min Rain = 0
KWT1 201021Z 18006KT 24/16 A3005 RMK A01 T02420164  RH  062%=      5-min Rain = 0
KWT1 201022Z 18006KT 24/16 A3005 RMK A01 T02420164  RH  062%=      5-min Rain = 0
KWT1 201023Z 18006KT 24/16 A3005 RMK A01 T02420164  RH  062%=      5-min Rain = 0
KWT1 201024Z 18005KT 24/16 A3005 RMK A01 T02410164  RH  062%=      5-min Rain = 0
KWT1 201025Z 18005KT 24/16 A3005 RMK A01 T02410164  RH  062%=      5-min Rain = 0
KWT1 201026Z 18005KT 24/16 A3005 RMK A01 T02410164  RH  062%=      5-min Rain = 0
KWT1 201027Z 18005KT 24/16 A3005 RMK A01 T02410164  RH  062%=      5-min Rain = 0
KWT1 201028Z 18005KT 24/16 A3005 RMK A01 T02400164  RH  062%=      5-min Rain = 0
KWT1 201029Z 18005KT 24/16 A3005 RMK A01 T02400164  RH  062%=      5-min Rain = 0
KWT1 201030Z 18006KT 24/16 A3005 RMK A01 T02400164  RH  063%=      5-min Rain = 0
KWT1 201031Z 18006KT 24/16 A3005 RMK A01 T02400164  RH  063%=      5-min Rain = 0
KWT1 201032Z 18006KT 24/16 A3005 RMK A01 T02400164  RH  063%=      5-min Rain = 0
KWT1 201033Z 19006KT 24/16 A3005 RMK A01 T02400164  RH  063%=      5-min Rain = 0
KWT1 201034Z 19006KT 24/16 A3005 RMK A01 T02390164  RH  063%=      5-min Rain = 0
KWT1 201035Z 19007KT 24/16 A3005 RMK A01 T02390164  RH  063%=      5-min Rain = 0
KWT1 201036Z 19006KT 24/16 A3005 RMK A01 T02380163  RH  063%=      5-min Rain = 0
KWT1 201037Z 19006KT 24/16 A3005 RMK A01 T02380163  RH  063%=      5-min Rain = 0
KWT1 201038Z 19006KT 24/16 A3006 RMK A01 T02380163  RH  063%=      5-min Rain = 0
KWT1 201039Z 20006KT 24/16 A3006 RMK A01 T02370163  RH  063%=      5-min Rain = 0
KWT1 201040Z 20006KT 24/16 A3006 RMK A01 T02370164  RH  063%=      5-min Rain = 0
KWT1 201041Z 20006KT 24/16 A3006 RMK A01 T02370164  RH  064%=      5-min Rain = 0
KWT1 201042Z 20006KT 24/16 A3006 RMK A01 T02370164  RH  064%=      5-min Rain = 0
KWT1 201043Z 20005KT 24/16 A3006 RMK A01 T02370164  RH  064%=      5-min Rain = 0
KWT1 201044Z 20005KT 24/16 A3006 RMK A01 T02370164  RH  064%=      5-min Rain = 0
KWT1 201045Z 20006KT 24/16 A3006 RMK A01 T02370164  RH  064%=      5-min Rain = 0
KWT1 201046Z 20006KT 24/16 A3006 RMK A01 T02370164  RH  064%=      5-min Rain = 0
KWT1 201047Z 20006KT 24/17 A3006 RMK A01 T02370165  RH  064%=      5-min Rain = 0
KWT1 201048Z 20006KT 24/17 A3006 RMK A01 T02380165  RH  064%=      5-min Rain = 0
KWT1 201049Z 20006KT 24/17 A3006 RMK A01 T02380165  RH  064%=      5-min Rain = 0
KWT1 201050Z 20006KT 24/17 A3006 RMK A01 T02380165  RH  064%=      5-min Rain = 0
KWT1 201051Z 20006KT 24/17 A3006 RMK A01 T02390166  RH  064%=      5-min Rain = 0
KWT1 201052Z 19006KT 24/17 A3006 RMK A01 T02390166  RH  063%=      5-min Rain = 0
KWT1 201053Z 19006KT 24/17 A3006 RMK A01 T02390165  RH  063%=      5-min Rain = 0
KWT1 201054Z 20006KT 24/17 A3006 RMK A01 T02390166  RH  063%=      5-min Rain = 0
KWT1 201055Z 20006KT 24/17 A3006 RMK A01 T02390166  RH  064%=      5-min Rain = 0
KWT1 201056Z 20005KT 24/17 A3006 RMK A01 T02390166  RH  063%=      5-min Rain = 0
KWT1 201057Z 20005KT 24/17 A3006 RMK A01 T02390166  RH  063%=      5-min Rain = 0
KWT1 201058Z 20005KT 24/17 A3006 RMK A01 T02390166  RH  064%=      5-min Rain = 0
KWT1 201059Z 20005KT 24/17 A3006 RMK A01 T02390166  RH  064%=      5-min Rain = 0
KWT1 201100Z 19005KT 24/17 A3007 RMK A01 T02390166  RH  064%=      5-min Rain = 0
KWT1 201101Z 19005KT 24/17 A3007 RMK A01 T02390166  RH  064%=      5-min Rain = 0
KWT1 201102Z 19005KT 24/17 A3007 RMK A01 T02390166  RH  064%=      5-min Rain = 0
KWT1 201103Z 19005KT 24/17 A3007 RMK A01 T02390167  RH  064%=      5-min Rain = 0
KWT1 201104Z 19005KT 24/17 A3007 RMK A01 T02390167  RH  064%=      5-min Rain = 0
KWT1 201105Z 19004KT 24/17 A3007 RMK A01 T02390166  RH  064%=      5-min Rain = 0
KWT1 201106Z 19005KT 24/17 A3007 RMK A01 T02380167  RH  064%=      5-min Rain = 0
KWT1 201107Z 19005KT 24/17 A3007 RMK A01 T02380167  RH  064%=      5-min Rain = 0
KWT1 201108Z 19004KT 24/17 A3007 RMK A01 T02380167  RH  064%=      5-min Rain = 0
KWT1 201109Z 19005KT 24/17 A3007 RMK A01 T02380167  RH  064%=      5-min Rain = 0
KWT1 201110Z 19004KT 24/17 A3007 RMK A01 T02380167  RH  064%=      5-min Rain = 0
KWT1 201111Z 19004KT 24/17 A3007 RMK A01 T02380167  RH  064%=      5-min Rain = 0
KWT1 201112Z 19005KT 24/17 A3007 RMK A01 T02380167  RH  064%=      5-min Rain = 0
KWT1 201113Z 19005KT 24/17 A3007 RMK A01 T02370166  RH  065%=      5-min Rain = 0
KWT1 201114Z 19005KT 24/17 A3007 RMK A01 T02370167  RH  065%=      5-min Rain = 0
KWT1 201115Z 19005KT 24/17 A3007 RMK A01 T02370167  RH  065%=      5-min Rain = 0
KWT1 201116Z 19005KT 24/17 A3007 RMK A01 T02370167  RH  065%=      5-min Rain = 0
KWT1 201117Z 19005KT 24/17 A3007 RMK A01 T02360167  RH  065%=      5-min Rain = 0
KWT1 201118Z 19005KT 24/17 A3007 RMK A01 T02360167  RH  065%=      5-min Rain = 0
KWT1 201119Z 20005KT 24/17 A3007 RMK A01 T02360167  RH  065%=      5-min Rain = 0
KWT1 201120Z 20005KT 24/17 A3007 RMK A01 T02360167  RH  065%=      5-min Rain = 0
KWT1 201121Z 20005KT 24/17 A3007 RMK A01 T02350167  RH  065%=      5-min Rain = 0
KWT1 201122Z 20005KT 24/17 A3007 RMK A01 T02350166  RH  065%=      5-min Rain = 0
KWT1 201123Z 20005KT 24/17 A3007 RMK A01 T02350167  RH  065%=      5-min Rain = 0
KWT1 201124Z 20005KT 24/17 A3007 RMK A01 T02350167  RH  066%=      5-min Rain = 0
KWT1 201125Z 20005KT 24/17 A3007 RMK A01 T02350167  RH  065%=      5-min Rain = 0
KWT1 201126Z 20005KT 24/17 A3007 RMK A01 T02350166  RH  065%=      5-min Rain = 0
KWT1 201127Z 19005KT 24/17 A3007 RMK A01 T02350167  RH  066%=      5-min Rain = 0
KWT1 201128Z 19005KT 24/17 A3007 RMK A01 T02350167  RH  066%=      5-min Rain = 0
KWT1 201129Z 20005KT 24/17 A3007 RMK A01 T02350167  RH  066%=      5-min Rain = 0
KWT1 201130Z 19005KT 23/17 A3007 RMK A01 T02340166  RH  066%=      5-min Rain = 0
KWT1 201131Z 19005KT 23/17 A3007 RMK A01 T02340166  RH  066%=      5-min Rain = 0
KWT1 201132Z 19005KT 23/17 A3007 RMK A01 T02340166  RH  066%=      5-min Rain = 0
KWT1 201133Z 19005KT 23/17 A3007 RMK A01 T02340166  RH  066%=      5-min Rain = 0
KWT1 201134Z 19005KT 23/17 A3007 RMK A01 T02340167  RH  066%=      5-min Rain = 0
KWT1 201135Z 19005KT 23/17 A3007 RMK A01 T02340166  RH  066%=      5-min Rain = 0
KWT1 201136Z 19005KT 23/17 A3007 RMK A01 T02330166  RH  066%=      5-min Rain = 0
KWT1 201137Z 19005KT 23/17 A3007 RMK A01 T02340167  RH  066%=      5-min Rain = 0
KWT1 201138Z 19005KT 23/17 A3007 RMK A01 T02330167  RH  066%=      5-min Rain = 0
KWT1 201139Z 19005KT 23/17 A3007 RMK A01 T02330167  RH  066%=      5-min Rain = 0
KWT1 201140Z 19006KT 23/17 A3007 RMK A01 T02330167  RH  066%=      5-min Rain = 0
KWT1 201141Z 19006KT 23/17 A3007 RMK A01 T02340167  RH  066%=      5-min Rain = 0
KWT1 201142Z 19006KT 23/17 A3007 RMK A01 T02330166  RH  066%=      5-min Rain = 0
KWT1 201143Z 20006KT 23/17 A3007 RMK A01 T02330167  RH  066%=      5-min Rain = 0
KWT1 201144Z 20005KT 23/17 A3007 RMK A01 T02330166  RH  066%=      5-min Rain = 0
KWT1 201145Z 20006KT 23/17 A3007 RMK A01 T02330166  RH  066%=      5-min Rain = 0
KWT1 201146Z 20005KT 23/17 A3007 RMK A01 T02330167  RH  066%=      5-min Rain = 0
KWT1 201147Z 20005KT 23/17 A3007 RMK A01 T02330167  RH  066%=      5-min Rain = 0
KWT1 201148Z 20005KT 23/17 A3007 RMK A01 T02330166  RH  066%=      5-min Rain = 0
KWT1 201149Z 20005KT 23/17 A3007 RMK A01 T02330167  RH  066%=      5-min Rain = 0
KWT1 201150Z 20005KT 23/17 A3007 RMK A01 T02330167  RH  066%=      5-min Rain = 0
KWT1 201151Z 20006KT 23/17 A3007 RMK A01 T02330167  RH  066%=      5-min Rain = 0
KWT1 201152Z 20006KT 23/17 A3007 RMK A01 T02330167  RH  066%=      5-min Rain = 0
KWT1 201153Z 20006KT 23/17 A3007 RMK A01 T02330167  RH  066%=      5-min Rain = 0
KWT1 201154Z 20006KT 23/17 A3007 RMK A01 T02330167  RH  066%=      5-min Rain = 0
KWT1 201155Z 20006KT 23/17 A3007 RMK A01 T02340167  RH  066%=      5-min Rain = 0
KWT1 201156Z 20006KT 23/17 A3007 RMK A01 T02340167  RH  066%=      5-min Rain = 0
KWT1 201157Z 20006KT 24/17 A3007 RMK A01 T02350167  RH  066%=      5-min Rain = 0
KWT1 201158Z 20006KT 24/17 A3007 RMK A01 T02350167  RH  066%=      5-min Rain = 0
KWT1 201159Z 20006KT 24/17 A3007 RMK A01 T02350167  RH  065%=      5-min Rain = 0
KWT1 201200Z 19006KT 24/17 A3007 RMK A01 T02350167  RH  065%=      5-min Rain = 0
KWT1 201201Z 19006KT 24/17 A3007 RMK A01 T02350167  RH  065%=      5-min Rain = 0
KWT1 201202Z 19006KT 24/17 A3007 RMK A01 T02350167  RH  065%=      5-min Rain = 0
KWT1 201203Z 19006KT 24/17 A3007 RMK A01 T02350167  RH  065%=      5-min Rain = 0
KWT1 201204Z 19006KT 24/17 A3007 RMK A01 T02350167  RH  065%=      5-min Rain = 0
KWT1 201205Z 19005KT 24/17 A3007 RMK A01 T02360167  RH  065%=      5-min Rain = 0
KWT1 201206Z 19005KT 24/17 A3007 RMK A01 T02360167  RH  065%=      5-min Rain = 0
KWT1 201207Z 18005KT 24/17 A3007 RMK A01 T02360167  RH  065%=      5-min Rain = 0
KWT1 201208Z 18005KT 24/17 A3007 RMK A01 T02360167  RH  065%=      5-min Rain = 0
KWT1 201209Z 18005KT 24/17 A3007 RMK A01 T02360167  RH  065%=      5-min Rain = 0
KWT1 201210Z 17005KT 24/17 A3008 RMK A01 T02350167  RH  066%=      5-min Rain = 0
KWT1 201211Z 18005KT 23/17 A3008 RMK A01 T02340167  RH  066%=      5-min Rain = 0
KWT1 201212Z 18005KT 23/17 A3008 RMK A01 T02340167  RH  066%=      5-min Rain = 0
KWT1 201213Z 17005KT 23/17 A3008 RMK A01 T02330167  RH  066%=      5-min Rain = 0
KWT1 201214Z 17005KT 23/17 A3008 RMK A01 T02330166  RH  066%=      5-min Rain = 0
KWT1 201215Z 17005KT 23/17 A3008 RMK A01 T02320167  RH  067%=      5-min Rain = 0
KWT1 201216Z 17005KT 23/17 A3008 RMK A01 T02320167  RH  067%=      5-min Rain = 0
KWT1 201217Z 16005KT 23/17 A3008 RMK A01 T02320167  RH  067%=      5-min Rain = 0
KWT1 201218Z 16005KT 23/17 A3008 RMK A01 T02320166  RH  067%=      5-min Rain = 0
KWT1 201219Z 16005KT 23/17 A3008 RMK A01 T02310166  RH  067%=      5-min Rain = 0
KWT1 201220Z 15005KT 23/17 A3008 RMK A01 T02310166  RH  067%=      5-min Rain = 0
KWT1 201221Z 15004KT 23/17 A3008 RMK A01 T02310167  RH  067%=      5-min Rain = 0
KWT1 201222Z 15004KT 23/17 A3008 RMK A01 T02300166  RH  067%=      5-min Rain = 0
KWT1 201223Z 15004KT 23/17 A3008 RMK A01 T02300166  RH  067%=      5-min Rain = 0
KWT1 201224Z 14003KT 23/17 A3008 RMK A01 T02300166  RH  067%=      5-min Rain = 0
KWT1 201225Z 15004KT 23/17 A3008 RMK A01 T02300166  RH  067%=      5-min Rain = 0
KWT1 201226Z 15004KT 23/17 A3008 RMK A01 T02290166  RH  067%=      5-min Rain = 0
KWT1 201227Z 15004KT 23/17 A3008 RMK A01 T02290165  RH  067%=      5-min Rain = 0
KWT1 201228Z 16004KT 23/17 A3008 RMK A01 T02290166  RH  067%=      5-min Rain = 0
KWT1 201229Z 16004KT 23/17 A3008 RMK A01 T02290166  RH  067%=      5-min Rain = 0
KWT1 201230Z 17004KT 23/17 A3008 RMK A01 T02290166  RH  068%=      5-min Rain = 0
KWT1 201231Z 17004KT 23/17 A3008 RMK A01 T02300167  RH  068%=      5-min Rain = 0
KWT1 201232Z 17004KT 23/17 A3008 RMK A01 T02300167  RH  067%=      5-min Rain = 0
KWT1 201233Z 17004KT 23/17 A3008 RMK A01 T02300167  RH  067%=      5-min Rain = 0
KWT1 201234Z 17004KT 23/17 A3008 RMK A01 T02300167  RH  068%=      5-min Rain = 0
KWT1 201235Z 17004KT 23/17 A3008 RMK A01 T02300167  RH  068%=      5-min Rain = 0
KWT1 201236Z 17004KT 23/17 A3008 RMK A01 T02300167  RH  068%=      5-min Rain = 0
KWT1 201237Z 17004KT 23/17 A3008 RMK A01 T02300167  RH  067%=      5-min Rain = 0
KWT1 201238Z 17005KT 23/17 A3008 RMK A01 T02300167  RH  067%=      5-min Rain = 0
KWT1 201239Z 17005KT 23/17 A3008 RMK A01 T02310167  RH  067%=      5-min Rain = 0
KWT1 201240Z 17005KT 23/17 A3008 RMK A01 T02310167  RH  067%=      5-min Rain = 0
KWT1 201241Z 17005KT 23/17 A3008 RMK A01 T02320168  RH  067%=      5-min Rain = 0
KWT1 201242Z 17005KT 23/17 A3008 RMK A01 T02320168  RH  067%=      5-min Rain = 0
KWT1 201243Z 17005KT 23/17 A3008 RMK A01 T02330168  RH  067%=      5-min Rain = 0
KWT1 201244Z 17005KT 23/17 A3008 RMK A01 T02330168  RH  067%=      5-min Rain = 0
KWT1 201245Z 17005KT 23/17 A3008 RMK A01 T02340168  RH  066%=      5-min Rain = 0
KWT1 201246Z 17005KT 24/17 A3008 RMK A01 T02350168  RH  066%=      5-min Rain = 0
KWT1 201247Z 17005KT 24/17 A3008 RMK A01 T02360169  RH  066%=      5-min Rain = 0
KWT1 201248Z 18005KT 24/17 A3008 RMK A01 T02360169  RH  066%=      5-min Rain = 0
KWT1 201249Z 18005KT 24/17 A3008 RMK A01 T02370169  RH  066%=      5-min Rain = 0
KWT1 201250Z 18005KT 24/17 A3008 RMK A01 T02380169  RH  065%=      5-min Rain = 0
KWT1 201251Z 18004KT 24/17 A3008 RMK A01 T02390170  RH  065%=      5-min Rain = 0
KWT1 201252Z 18004KT 24/17 A3008 RMK A01 T02390170  RH  065%=      5-min Rain = 0
KWT1 201253Z 18004KT 24/17 A3008 RMK A01 T02400170  RH  065%=      5-min Rain = 0
KWT1 201254Z 18004KT 24/17 A3008 RMK A01 T02410170  RH  065%=      5-min Rain = 0
KWT1 201255Z 18004KT 24/17 A3008 RMK A01 T02420170  RH  064%=      5-min Rain = 0
KWT1 201256Z 18004KT 24/17 A3008 RMK A01 T02420170  RH  064%=      5-min Rain = 0
KWT1 201257Z 18004KT 24/17 A3008 RMK A01 T02430171  RH  064%=      5-min Rain = 0
KWT1 201258Z 18004KT 24/17 A3008 RMK A01 T02430171  RH  064%=      5-min Rain = 0
KWT1 201259Z 18004KT 24/17 A3008 RMK A01 T02440171  RH  064%=      5-min Rain = 0
KWT1 201300Z 18004KT 25/17 A3008 RMK A01 T02450172  RH  064%=      5-min Rain = 0
KWT1 201301Z 19004KT 25/17 A3008 RMK A01 T02460171  RH  063%=      5-min Rain = 0
KWT1 201302Z 19004KT 25/17 A3008 RMK A01 T02470172  RH  063%=      5-min Rain = 0
KWT1 201303Z 18004KT 25/17 A3008 RMK A01 T02480172  RH  063%=      5-min Rain = 0
KWT1 201304Z 19004KT 25/17 A3008 RMK A01 T02490172  RH  062%=      5-min Rain = 0
KWT1 201305Z 18004KT 25/17 A3008 RMK A01 T02500172  RH  062%=      5-min Rain = 0
KWT1 201306Z 18004KT 25/17 A3008 RMK A01 T02510173  RH  062%=      5-min Rain = 0
KWT1 201307Z 17003KT 25/17 A3008 RMK A01 T02520172  RH  061%=      5-min Rain = 0
KWT1 201308Z 18004KT 25/17 A3008 RMK A01 T02530173  RH  061%=      5-min Rain = 0
KWT1 201309Z 18005KT 25/17 A3008 RMK A01 T02540173  RH  061%=      5-min Rain = 0
KWT1 201310Z 18004KT 26/17 A3008 RMK A01 T02550173  RH  061%=      5-min Rain = 0
KWT1 201311Z 17003KT 26/17 A3008 RMK A01 T02550173  RH  060%=      5-min Rain = 0
KWT1 201312Z 19003KT 26/17 A3008 RMK A01 T02560174  RH  060%=      5-min Rain = 0
KWT1 201313Z 18003KT 26/17 A3008 RMK A01 T02570174  RH  060%=      5-min Rain = 0
KWT1 201314Z 19003KT 26/17 A3008 RMK A01 T02580174  RH  060%=      5-min Rain = 0
KWT1 201315Z 19004KT 26/18 A3008 RMK A01 T02590175  RH  060%=      5-min Rain = 0
KWT1 201316Z 19005KT 26/17 A3008 RMK A01 T02590174  RH  059%=      5-min Rain = 0
KWT1 201317Z 20005KT 26/17 A3008 RMK A01 T02590174  RH  059%=      5-min Rain = 0
KWT1 201318Z 19006KT 26/17 A3008 RMK A01 T02600174  RH  059%=      5-min Rain = 0
KWT1 201319Z 19006KT 26/17 A3008 RMK A01 T02600174  RH  059%=      5-min Rain = 0
KWT1 201320Z 20005KT 26/17 A3008 RMK A01 T02600174  RH  059%=      5-min Rain = 0
KWT1 201321Z 19005KT 26/18 A3008 RMK A01 T02610175  RH  059%=      5-min Rain = 0
KWT1 201322Z 20005KT 26/18 A3008 RMK A01 T02610175  RH  059%=      5-min Rain = 0
KWT1 201323Z 19006KT 26/18 A3008 RMK A01 T02620175  RH  059%=      5-min Rain = 0
KWT1 201324Z 19006KT 26/18 A3008 RMK A01 T02620175  RH  059%=      5-min Rain = 0
KWT1 201325Z 19007KT 26/18 A3008 RMK A01 T02620175  RH  059%=      5-min Rain = 0
KWT1 201326Z 18007KT 26/18 A3008 RMK A01 T02630175  RH  059%=      5-min Rain = 0
KWT1 201327Z 18006KT 26/18 A3008 RMK A01 T02620175  RH  059%=      5-min Rain = 0
KWT1 201328Z 19005KT 26/18 A3008 RMK A01 T02630175  RH  059%=      5-min Rain = 0
KWT1 201329Z 18005KT 26/18 A3009 RMK A01 T02630175  RH  058%=      5-min Rain = 0
KWT1 201330Z 18006KT 26/18 A3009 RMK A01 T02640175  RH  058%=      5-min Rain = 0
KWT1 201331Z 18007KT 26/18 A3009 RMK A01 T02640176  RH  058%=      5-min Rain = 0
KWT1 201332Z 18005KT 27/18 A3009 RMK A01 T02650176  RH  058%=      5-min Rain = 0
KWT1 201333Z 17005KT 27/18 A3009 RMK A01 T02650176  RH  058%=      5-min Rain = 0
KWT1 201334Z 18006KT 27/18 A3009 RMK A01 T02670178  RH  058%=      5-min Rain = 0
KWT1 201335Z 18005KT 27/18 A3009 RMK A01 T02680178  RH  058%=      5-min Rain = 0
KWT1 201336Z 18007KT 27/18 A3009 RMK A01 T02670178  RH  058%=      5-min Rain = 0
KWT1 201337Z 18007KT 27/18 A3009 RMK A01 T02670178  RH  058%=      5-min Rain = 0
KWT1 201338Z 18006KT 27/18 A3009 RMK A01 T02670178  RH  058%=      5-min Rain = 0
KWT1 201339Z 18007KT 27/18 A3009 RMK A01 T02670179  RH  058%=      5-min Rain = 0
KWT1 201340Z 18007KT 27/18 A3009 RMK A01 T02680179  RH  058%=      5-min Rain = 0
KWT1 201341Z 18007KT 27/18 A3009 RMK A01 T02680180  RH  058%=      5-min Rain = 0
KWT1 201342Z 19008KT 27/18 A3009 RMK A01 T02690180  RH  058%=      5-min Rain = 0
KWT1 201343Z 19007KT 27/18 A3009 RMK A01 T02680180  RH  058%=      5-min Rain = 0
KWT1 201344Z 18008KT 27/18 A3009 RMK A01 T02680180  RH  059%=      5-min Rain = 0
KWT1 201345Z 18008KT 27/18 A3009 RMK A01 T02680180  RH  059%=      5-min Rain = 0
KWT1 201346Z 20007KT 27/18 A3009 RMK A01 T02680181  RH  059%=      5-min Rain = 0
KWT1 201347Z 19006KT 27/18 A3009 RMK A01 T02690181  RH  058%=      5-min Rain = 0
KWT1 201348Z 19005KT 27/18 A3009 RMK A01 T02690181  RH  058%=      5-min Rain = 0
KWT1 201349Z 20007KT 27/18 A3009 RMK A01 T02710182  RH  058%=      5-min Rain = 0
KWT1 201350Z 18007KT 27/18 A3009 RMK A01 T02720181  RH  058%=      5-min Rain = 0
KWT1 201351Z 18006KT 27/18 A3009 RMK A01 T02720181  RH  058%=      5-min Rain = 0
KWT1 201352Z 19005KT 27/18 A3009 RMK A01 T02730182  RH  058%=      5-min Rain = 0
KWT1 201353Z 18006KT 27/18 A3009 RMK A01 T02740182  RH  057%=      5-min Rain = 0
KWT1 201354Z 19007KT 27/18 A3009 RMK A01 T02740182  RH  057%=      5-min Rain = 0
KWT1 201355Z 19007KT 27/18 A3009 RMK A01 T02740182  RH  057%=      5-min Rain = 0
KWT1 201356Z 18007KT 27/18 A3009 RMK A01 T02740182  RH  057%=      5-min Rain = 0
KWT1 201357Z 19008KT 27/18 A3009 RMK A01 T02740183  RH  057%=      5-min Rain = 0
KWT1 201358Z 19008KT 27/18 A3009 RMK A01 T02730183  RH  058%=      5-min Rain = 0
KWT1 201359Z 19008KT 27/18 A3009 RMK A01 T02730183  RH  058%=      5-min Rain = 0
KWT1 201400Z 19008KT 27/18 A3009 RMK A01 T02730183  RH  058%=      5-min Rain = 0
KWT1 201401Z 19008KT 27/18 A3009 RMK A01 T02730183  RH  058%=      5-min Rain = 0
KWT1 201402Z 20008KT 27/18 A3009 RMK A01 T02740183  RH  058%=      5-min Rain = 0
KWT1 201403Z 20007KT 27/18 A3009 RMK A01 T02740183  RH  058%=      5-min Rain = 0
KWT1 201404Z 20007KT 27/18 A3009 RMK A01 T02740184  RH  058%=      5-min Rain = 0
KWT1 201405Z 19008KT 28/19 A3009 RMK A01 T02750185  RH  058%=      5-min Rain = 0
KWT1 201406Z 18007KT 28/19 A3009 RMK A01 T02760186  RH  058%=      5-min Rain = 0
KWT1 201407Z 19008KT 28/19 A3009 RMK A01 T02780186  RH  057%=      5-min Rain = 0
KWT1 201408Z 18006KT 28/19 A3009 RMK A01 T02780186  RH  057%=      5-min Rain = 0
KWT1 201409Z 18008KT 28/19 A3009 RMK A01 T02770186  RH  058%=      5-min Rain = 0
KWT1 201410Z 19007KT 28/19 A3009 RMK A01 T02770186  RH  058%=      5-min Rain = 0
KWT1 201411Z 20006KT 28/19 A3009 RMK A01 T02760185  RH  058%=      5-min Rain = 0
KWT1 201412Z 19008KT 28/19 A3009 RMK A01 T02770186  RH  058%=      5-min Rain = 0
KWT1 201413Z 19008KT 28/19 A3009 RMK A01 T02770186  RH  058%=      5-min Rain = 0
KWT1 201414Z 19009KT 28/19 A3009 RMK A01 T02780187  RH  058%=      5-min Rain = 0
KWT1 201415Z 20009KT 28/19 A3009 RMK A01 T02780188  RH  058%=      5-min Rain = 0
KWT1 201416Z 20008KT 28/19 A3009 RMK A01 T02780188  RH  058%=      5-min Rain = 0
KWT1 201417Z 19007KT 28/19 A3009 RMK A01 T02790187  RH  057%=      5-min Rain = 0
KWT1 201418Z 19007KT 28/19 A3009 RMK A01 T02790187  RH  057%=      5-min Rain = 0
KWT1 201419Z 19006KT 28/19 A3009 RMK A01 T02800188  RH  057%=      5-min Rain = 0
KWT1 201420Z 18009KT 28/19 A3008 RMK A01 T02830190  RH  057%=      5-min Rain = 0
KWT1 201421Z 19008KT 28/19 A3008 RMK A01 T02830188  RH  057%=      5-min Rain = 0
KWT1 201422Z 19009KT 28/19 A3008 RMK A01 T02810188  RH  057%=      5-min Rain = 0
KWT1 201423Z 19010KT 28/19 A3008 RMK A01 T02810188  RH  057%=      5-min Rain = 0
KWT1 201424Z 19008KT 28/19 A3008 RMK A01 T02800189  RH  057%=      5-min Rain = 0
KWT1 201425Z 19009KT 28/19 A3008 RMK A01 T02810188  RH  057%=      5-min Rain = 0
KWT1 201426Z 19008KT 28/19 A3008 RMK A01 T02800188  RH  057%=      5-min Rain = 0
KWT1 201427Z 20010KT 28/19 A3008 RMK A01 T02830189  RH  057%=      5-min Rain = 0
KWT1 201428Z 20009KT 28/19 A3008 RMK A01 T02830189  RH  056%=      5-min Rain = 0
KWT1 201429Z 21008KT 28/19 A3008 RMK A01 T02840189  RH  056%=      5-min Rain = 0
KWT1 201430Z 21009KT 29/19 A3008 RMK A01 T02850189  RH  056%=      5-min Rain = 0
KWT1 201431Z 21008KT 29/19 A3008 RMK A01 T02850188  RH  056%=      5-min Rain = 0
KWT1 201432Z 21007KT 29/19 A3008 RMK A01 T02850189  RH  056%=      5-min Rain = 0
KWT1 201433Z 22007KT 29/19 A3008 RMK A01 T02870190  RH  056%=      5-min Rain = 0
KWT1 201434Z 21008KT 29/19 A3008 RMK A01 T02880189  RH  055%=      5-min Rain = 0
KWT1 201435Z 20008KT 29/19 A3008 RMK A01 T02880190  RH  055%=      5-min Rain = 0
KWT1 201436Z 20008KT 29/19 A3008 RMK A01 T02900190  RH  055%=      5-min Rain = 0
KWT1 201437Z 20007KT 29/19 A3008 RMK A01 T02900190  RH  055%=      5-min Rain = 0
KWT1 201438Z 19008KT 29/19 A3009 RMK A01 T02910191  RH  055%=      5-min Rain = 0
KWT1 201439Z 21008KT 29/19 A3009 RMK A01 T02910192  RH  055%=      5-min Rain = 0
KWT1 201440Z 21008KT 29/19 A3008 RMK A01 T02910192  RH  055%=      5-min Rain = 0
KWT1 201441Z 21007KT 29/19 A3008 RMK A01 T02910192  RH  055%=      5-min Rain = 0
KWT1 201442Z 21009G14KT 29/19 A3008 RMK A01 T02920192  RH  055%=      5-min Rain = 0
KWT1 201443Z 20011KT 29/19 A3008 RMK A01 T02920192  RH  055%=      5-min Rain = 0
KWT1 201444Z 20011KT 29/19 A3009 RMK A01 T02920192  RH  055%=      5-min Rain = 0
KWT1 201445Z 20011KT 29/19 A3009 RMK A01 T02900191  RH  055%=      5-min Rain = 0
KWT1 201446Z 20009KT 29/19 A3009 RMK A01 T02900192  RH  055%=      5-min Rain = 0
KWT1 201447Z 21009KT 29/19 A3009 RMK A01 T02910192  RH  055%=      5-min Rain = 0
KWT1 201448Z 21010KT 29/19 A3009 RMK A01 T02920192  RH  055%=      5-min Rain = 0
KWT1 201449Z 21010KT 29/19 A3009 RMK A01 T02920192  RH  055%=      5-min Rain = 0
KWT1 201450Z 21009KT 29/19 A3009 RMK A01 T02920192  RH  055%=      5-min Rain = 0
KWT1 201451Z 21008KT 29/19 A3009 RMK A01 T02930192  RH  054%=      5-min Rain = 0
KWT1 201452Z 18010KT 29/19 A3009 RMK A01 T02930192  RH  055%=      5-min Rain = 0
KWT1 201453Z 20011KT 29/19 A3009 RMK A01 T02940192  RH  054%=      5-min Rain = 0
KWT1 201454Z 18009KT 29/19 A3009 RMK A01 T02930192  RH  054%=      5-min Rain = 0
KWT1 201455Z 19009KT 30/19 A3009 RMK A01 T02950193  RH  054%=      5-min Rain = 0
KWT1 201456Z 19010KT 30/19 A3009 RMK A01 T02960193  RH  054%=      5-min Rain = 0
KWT1 201457Z 20011KT 30/19 A3009 RMK A01 T02960192  RH  054%=      5-min Rain = 0
KWT1 201458Z 20009KT 30/19 A3009 RMK A01 T02960192  RH  054%=      5-min Rain = 0
KWT1 201459Z 20009KT 30/19 A3009 RMK A01 T02950192  RH  054%=      5-min Rain = 0
KWT1 201500Z 21008KT 30/19 A3009 RMK A01 T02960192  RH  054%=      5-min Rain = 0
KWT1 201501Z 20008KT 30/19 A301 RMK A01 T02970192  RH  053%=      5-min Rain = 0
KWT1 201502Z 21009KT 30/19 A301 RMK A01 T02960192  RH  054%=      5-min Rain = 0
KWT1 201503Z 21008KT 30/19 A301 RMK A01 T02960193  RH  054%=      5-min Rain = 0
KWT1 201504Z 19008KT 30/19 A301 RMK A01 T02960192  RH  054%=      5-min Rain = 0
KWT1 201505Z 19007KT 30/19 A301 RMK A01 T02960192  RH  054%=      5-min Rain = 0
KWT1 201506Z 18006KT 30/19 A301 RMK A01 T02960193  RH  054%=      5-min Rain = 0
KWT1 201507Z 19006KT 30/19 A301 RMK A01 T02980193  RH  053%=      5-min Rain = 0
KWT1 201508Z 18007KT 30/19 A301 RMK A01 T03000194  RH  053%=      5-min Rain = 0
KWT1 201509Z 17010KT 30/19 A301 RMK A01 T03010193  RH  053%=      5-min Rain = 0
KWT1 201510Z 18008KT 30/19 A301 RMK A01 T03000193  RH  052%=      5-min Rain = 0
KWT1 201511Z 18008KT 30/19 A3009 RMK A01 T02990193  RH  053%=      5-min Rain = 0
KWT1 201512Z 19007KT 30/19 A3009 RMK A01 T03000193  RH  053%=      5-min Rain = 0
KWT1 201513Z 19008KT 30/19 A3009 RMK A01 T03020193  RH  052%=      5-min Rain = 0
KWT1 201514Z 20006KT 30/19 A3009 RMK A01 T03010192  RH  052%=      5-min Rain = 0
KWT1 201515Z 21006KT 30/19 A3009 RMK A01 T02990192  RH  053%=      5-min Rain = 0
KWT1 201516Z 21009KT 30/19 A3009 RMK A01 T03020194  RH  052%=      5-min Rain = 0
KWT1 201517Z 21008KT 31/19 A3009 RMK A01 T03050191  RH  051%=      5-min Rain = 0
KWT1 201518Z 19007KT 31/19 A3009 RMK A01 T03050192  RH  051%=      5-min Rain = 0
KWT1 201519Z 19008KT 31/19 A3009 RMK A01 T03050193  RH  051%=      5-min Rain = 0
KWT1 201520Z 19009KT 31/19 A301 RMK A01 T03050191  RH  051%=      5-min Rain = 0
KWT1 201521Z 19006KT 30/19 A301 RMK A01 T03020191  RH  051%=      5-min Rain = 0
KWT1 201522Z 21005KT 30/19 A301 RMK A01 T03010191  RH  052%=      5-min Rain = 0
KWT1 201523Z 18010G15KT 30/19 A301 RMK A01 T03010192  RH  052%=      5-min Rain = 0
KWT1 201524Z 17007KT 30/19 A301 RMK A01 T03030192  RH  052%=      5-min Rain = 0
KWT1 201525Z 17009KT 31/19 A301 RMK A01 T03050192  RH  051%=      5-min Rain = 0
KWT1 201526Z 18009KT 31/19 A301 RMK A01 T03060192  RH  051%=      5-min Rain = 0
KWT1 201527Z 18007KT 31/19 A301 RMK A01 T03060192  RH  051%=      5-min Rain = 0
KWT1 201528Z 17008KT 31/19 A301 RMK A01 T03070192  RH  050%=      5-min Rain = 0
KWT1 201529Z 18008KT 31/19 A301 RMK A01 T03050192  RH  051%=      5-min Rain = 0
KWT1 201530Z 20008KT 30/19 A301 RMK A01 T03040192  RH  051%=      5-min Rain = 0
KWT1 201531Z 20008KT 30/19 A301 RMK A01 T03040192  RH  051%=      5-min Rain = 0
KWT1 201532Z 19009KT 30/19 A301 RMK A01 T03030192  RH  051%=      5-min Rain = 0
KWT1 201533Z 21009KT 30/19 A301 RMK A01 T03030192  RH  051%=      5-min Rain = 0
KWT1 201534Z 21009KT 30/19 A301 RMK A01 T03030191  RH  051%=      5-min Rain = 0
KWT1 201535Z 20009KT 30/19 A301 RMK A01 T03030192  RH  051%=      5-min Rain = 0
KWT1 201536Z 21008KT 30/19 A301 RMK A01 T03030192  RH  051%=      5-min Rain = 0
KWT1 201537Z 20009KT 31/19 A301 RMK A01 T03050193  RH  051%=      5-min Rain = 0
KWT1 201538Z 20009KT 31/19 A301 RMK A01 T03060193  RH  051%=      5-min Rain = 0
KWT1 201539Z 20007KT 30/19 A301 RMK A01 T03040193  RH  051%=      5-min Rain = 0
KWT1 201540Z 21009KT 30/19 A301 RMK A01 T03040193  RH  051%=      5-min Rain = 0
KWT1 201541Z 22006KT 31/19 A301 RMK A01 T03050193  RH  051%=      5-min Rain = 0
KWT1 201542Z 20006KT 31/19 A301 RMK A01 T03050194  RH  051%=      5-min Rain = 0
KWT1 201543Z 20004KT 31/20 A301 RMK A01 T03100196  RH  051%=      5-min Rain = 0
KWT1 201544Z 21007KT 32/20 A301 RMK A01 T03150197  RH  050%=      5-min Rain = 0
KWT1 201545Z 23007KT 32/20 A301 RMK A01 T03150195  RH  049%=      5-min Rain = 0
KWT1 201546Z 21009KT 31/19 A301 RMK A01 T03120194  RH  049%=      5-min Rain = 0
KWT1 201547Z 20009KT 31/19 A301 RMK A01 T03110193  RH  049%=      5-min Rain = 0
KWT1 201548Z 20006KT 31/19 A301 RMK A01 T03100193  RH  050%=      5-min Rain = 0
KWT1 201549Z 18009KT 31/19 A301 RMK A01 T03120194  RH  050%=      5-min Rain = 0
KWT1 201550Z 18012KT 31/19 A301 RMK A01 T03130193  RH  049%=      5-min Rain = 0
KWT1 201551Z 18011KT 31/19 A301 RMK A01 T03110192  RH  049%=      5-min Rain = 0
KWT1 201552Z 18011KT 31/19 A301 RMK A01 T03100192  RH  050%=      5-min Rain = 0
KWT1 201553Z 19008KT 31/19 A301 RMK A01 T03090194  RH  050%=      5-min Rain = 0
KWT1 201554Z 20007KT 31/19 A301 RMK A01 T03090194  RH  050%=      5-min Rain = 0
KWT1 201555Z 21008KT 31/19 A301 RMK A01 T03090194  RH  050%=      5-min Rain = 0
KWT1 201556Z 22010KT 31/19 A301 RMK A01 T03130194  RH  049%=      5-min Rain = 0
KWT1 201557Z 21008KT 31/19 A301 RMK A01 T03140194  RH  049%=      5-min Rain = 0
KWT1 201558Z 19008KT 32/20 A301 RMK A01 T03150195  RH  049%=      5-min Rain = 0
KWT1 201559Z 18007KT 32/20 A301 RMK A01 T03160196  RH  049%=      5-min Rain = 0
KWT1 201600Z 19006KT 32/20 A301 RMK A01 T03160195  RH  049%=      5-min Rain = 0
KWT1 201601Z 16008KT 32/20 A301 RMK A01 T03150196  RH  049%=      5-min Rain = 0
KWT1 201602Z 16007KT 32/20 A301 RMK A01 T03160196  RH  049%=      5-min Rain = 0
KWT1 201603Z 18007KT 32/20 A301 RMK A01 T03180197  RH  049%=      5-min Rain = 0
KWT1 201604Z 21007KT 32/20 A301 RMK A01 T03190195  RH  048%=      5-min Rain = 0
KWT1 201605Z 19011KT 32/20 A301 RMK A01 T03190196  RH  048%=      5-min Rain = 0
KWT1 201606Z 16007KT 32/20 A3011 RMK A01 T03200195  RH  048%=      5-min Rain = 0
KWT1 201607Z 18006KT 32/19 A3011 RMK A01 T03180194  RH  048%=      5-min Rain = 0
KWT1 201608Z 20006KT 32/19 A3011 RMK A01 T03190192  RH  047%=      5-min Rain = 0
KWT1 201609Z 20008KT 32/19 A3011 RMK A01 T03190192  RH  047%=      5-min Rain = 0
KWT1 201610Z 21008KT 32/19 A3011 RMK A01 T03210194  RH  047%=      5-min Rain = 0
KWT1 201611Z 20010KT 32/19 A3011 RMK A01 T03230194  RH  047%=      5-min Rain = 0
KWT1 201612Z 20009KT 32/19 A3011 RMK A01 T03200193  RH  047%=      5-min Rain = 0
KWT1 201613Z 18008KT 32/19 A3011 RMK A01 T03180193  RH  048%=      5-min Rain = 0
KWT1 201614Z 20009KT 32/19 A301 RMK A01 T03180193  RH  048%=      5-min Rain = 0
KWT1 201615Z 21009KT 32/19 A301 RMK A01 T03180192  RH  047%=      5-min Rain = 0
KWT1 201616Z 20009KT 32/19 A301 RMK A01 T03180194  RH  048%=      5-min Rain = 0
KWT1 201617Z 21008KT 32/19 A301 RMK A01 T03180193  RH  048%=      5-min Rain = 0
KWT1 201618Z 21006KT 32/19 A301 RMK A01 T03160191  RH  048%=      5-min Rain = 0
KWT1 201619Z 21007KT 32/19 A301 RMK A01 T03160192  RH  048%=      5-min Rain = 0
KWT1 201620Z 21010KT 32/19 A301 RMK A01 T03190194  RH  048%=      5-min Rain = 0
KWT1 201621Z 20008KT 32/19 A301 RMK A01 T03210194  RH  047%=      5-min Rain = 0
KWT1 201622Z 21008KT 32/19 A301 RMK A01 T03210194  RH  047%=      5-min Rain = 0
KWT1 201623Z 23006KT 32/19 A301 RMK A01 T03200193  RH  047%=      5-min Rain = 0
KWT1 201624Z 19005KT 32/19 A301 RMK A01 T03190193  RH  047%=      5-min Rain = 0
KWT1 201625Z 19007KT 32/19 A301 RMK A01 T03220194  RH  047%=      5-min Rain = 0
KWT1 201626Z 18008KT 32/19 A301 RMK A01 T03230194  RH  047%=      5-min Rain = 0
KWT1 201627Z 17006KT 32/20 A301 RMK A01 T03210195  RH  047%=      5-min Rain = 0
KWT1 201628Z 18009KT 32/20 A301 RMK A01 T03190195  RH  048%=      5-min Rain = 0
KWT1 201629Z 18009KT 32/19 A301 RMK A01 T03200194  RH  047%=      5-min Rain = 0
KWT1 201630Z 19008KT 32/19 A301 RMK A01 T03190193  RH  047%=      5-min Rain = 0
KWT1 201631Z 20008KT 32/19 A301 RMK A01 T03210194  RH  047%=      5-min Rain = 0
KWT1 201632Z 19008KT 32/19 A301 RMK A01 T03230193  RH  046%=      5-min Rain = 0
KWT1 201633Z 19008KT 32/19 A301 RMK A01 T03240192  RH  046%=      5-min Rain = 0
KWT1 201634Z 16009KT 33/19 A301 RMK A01 T03270192  RH  045%=      5-min Rain = 0
KWT1 201635Z 14011KT 33/19 A301 RMK A01 T03330194  RH  044%=      5-min Rain = 0
KWT1 201636Z 14009KT 34/19 A301 RMK A01 T03350193  RH  043%=      5-min Rain = 0
KWT1 201637Z 14007KT 33/19 A301 RMK A01 T03330194  RH  044%=      5-min Rain = 0
KWT1 201638Z 15008KT 33/19 A301 RMK A01 T03320194  RH  044%=      5-min Rain = 0
KWT1 201639Z 16007KT 33/19 A301 RMK A01 T03310194  RH  044%=      5-min Rain = 0
KWT1 201640Z 15004KT 33/19 A301 RMK A01 T03300192  RH  044%=      5-min Rain = 0
KWT1 201641Z 14006KT 33/19 A301 RMK A01 T03280193  RH  045%=      5-min Rain = 0
KWT1 201642Z 15007KT 33/19 A3011 RMK A01 T03340193  RH  043%=      5-min Rain = 0
KWT1 201643Z 16011KT 34/19 A3011 RMK A01 T03390190  RH  042%=      5-min Rain = 0
KWT1 201644Z 16011KT 34/19 A3011 RMK A01 T03380190  RH  042%=      5-min Rain = 0
KWT1 201645Z 17010KT 34/19 A3011 RMK A01 T03350191  RH  043%=      5-min Rain = 0
KWT1 201646Z 18012KT 33/19 A301 RMK A01 T03310190  RH  043%=      5-min Rain = 0
KWT1 201647Z 18008KT 33/19 A3011 RMK A01 T03260191  RH  045%=      5-min Rain = 0
KWT1 201648Z 17008KT 32/19 A3011 RMK A01 T03240191  RH  045%=      5-min Rain = 0
KWT1 201649Z 17008KT 32/19 A301 RMK A01 T03240190  RH  045%=      5-min Rain = 0
KWT1 201650Z 16006G11KT 33/19 A301 RMK A01 T03250190  RH  045%=      5-min Rain = 0
KWT1 201651Z 19006KT 33/19 A301 RMK A01 T03250191  RH  045%=      5-min Rain = 0
KWT1 201652Z 16005KT 33/19 A301 RMK A01 T03280191  RH  044%=      5-min Rain = 0
KWT1 201653Z 18004KT 33/19 A301 RMK A01 T03280192  RH  045%=      5-min Rain = 0
KWT1 201654Z 18008G14KT 33/19 A301 RMK A01 T03300193  RH  045%=      5-min Rain = 0
KWT1 201655Z 15008KT 34/19 A301 RMK A01 T03350193  RH  043%=      5-min Rain = 0
KWT1 201656Z 16005KT 34/19 A301 RMK A01 T03350192  RH  043%=      5-min Rain = 0
KWT1 201657Z 15007KT 33/19 A301 RMK A01 T03330192  RH  043%=      5-min Rain = 0
KWT1 201658Z 17009KT 33/19 A301 RMK A01 T03340194  RH  044%=      5-min Rain = 0
KWT1 201659Z 16009KT 34/19 A301 RMK A01 T03370193  RH  043%=      5-min Rain = 0
KWT1 201700Z 15008KT 34/19 A301 RMK A01 T03350193  RH  043%=      5-min Rain = 0
KWT1 201701Z 19006KT 33/19 A301 RMK A01 T03330192  RH  044%=      5-min Rain = 0
KWT1 201702Z 19008KT 33/19 A301 RMK A01 T03340192  RH  043%=      5-min Rain = 0
KWT1 201703Z 19009KT 34/19 A301 RMK A01 T03370192  RH  042%=      5-min Rain = 0
KWT1 201704Z 22009KT 34/19 A301 RMK A01 T03350192  RH  043%=      5-min Rain = 0
KWT1 201705Z 21008KT 33/19 A301 RMK A01 T03330191  RH  043%=      5-min Rain = 0
KWT1 201706Z 18006KT 33/19 A301 RMK A01 T03330192  RH  043%=      5-min Rain = 0
KWT1 201707Z 21008KT 33/19 A301 RMK A01 T03330193  RH  044%=      5-min Rain = 0
KWT1 201708Z 20006KT 33/19 A301 RMK A01 T03340192  RH  043%=      5-min Rain = 0
KWT1 201709Z 21009KT 33/19 A301 RMK A01 T03340191  RH  043%=      5-min Rain = 0
KWT1 201710Z 20011KT 34/19 A301 RMK A01 T03360187  RH  041%=      5-min Rain = 0
KWT1 201711Z 19011KT 34/19 A301 RMK A01 T03360186  RH  041%=      5-min Rain = 0
KWT1 201712Z 20008KT 33/19 A301 RMK A01 T03340186  RH  042%=      5-min Rain = 0
KWT1 201713Z 18011KT 33/19 A301 RMK A01 T03330185  RH  042%=      5-min Rain = 0
KWT1 201714Z 18010KT 33/19 A301 RMK A01 T03340187  RH  042%=      5-min Rain = 0
KWT1 201715Z 19009KT 33/18 A301 RMK A01 T03330183  RH  041%=      5-min Rain = 0
KWT1 201716Z 20007KT 33/18 A301 RMK A01 T03320182  RH  041%=      5-min Rain = 0
KWT1 201717Z 20006KT 33/18 A301 RMK A01 T03320181  RH  041%=      5-min Rain = 0
KWT1 201718Z 20004KT 33/18 A301 RMK A01 T03320183  RH  041%=      5-min Rain = 0
KWT1 201719Z 17006KT 33/19 A301 RMK A01 T03320185  RH  042%=      5-min Rain = 0
KWT1 201720Z 16011G16KT 34/18 A301 RMK A01 T03350183  RH  041%=      5-min Rain = 0
KWT1 201721Z 15012KT 34/18 A301 RMK A01 T03370179  RH  039%=      5-min Rain = 0
KWT1 201722Z 15012KT 34/18 A301 RMK A01 T03360181  RH  040%=      5-min Rain = 0
KWT1 201723Z 15011KT 34/18 A301 RMK A01 T03390178  RH  038%=      5-min Rain = 0
KWT1 201724Z 15010KT 34/18 A301 RMK A01 T03390181  RH  039%=      5-min Rain = 0
KWT1 201725Z 15010KT 34/19 A301 RMK A01 T03370185  RH  041%=      5-min Rain = 0
KWT1 201726Z 15007KT 34/19 A301 RMK A01 T03380187  RH  041%=      5-min Rain = 0
KWT1 201727Z 17008KT 34/19 A301 RMK A01 T03390188  RH  041%=      5-min Rain = 0
KWT1 201728Z 16006KT 34/19 A301 RMK A01 T03400188  RH  041%=      5-min Rain = 0
KWT1 201729Z 14004KT 34/19 A301 RMK A01 T03380187  RH  041%=      5-min Rain = 0
KWT1 201730Z 16003KT 34/19 A301 RMK A01 T03380188  RH  041%=      5-min Rain = 0
KWT1 201731Z 14007G13KT 34/19 A301 RMK A01 T03390187  RH  041%=      5-min Rain = 0
KWT1 201732Z 14011KT 34/18 A301 RMK A01 T03420183  RH  039%=      5-min Rain = 0
KWT1 201733Z 13009KT 35/18 A301 RMK A01 T03450184  RH  039%=      5-min Rain = 0
KWT1 201734Z 13006KT 34/19 A301 RMK A01 T03440185  RH  039%=      5-min Rain = 0
KWT1 201735Z 16008KT 35/19 A301 RMK A01 T03460186  RH  039%=      5-min Rain = 0
KWT1 201736Z 17006KT 34/19 A301 RMK A01 T03430186  RH  039%=      5-min Rain = 0
KWT1 201737Z 20003KT 34/18 A301 RMK A01 T03400184  RH  040%=      5-min Rain = 0
KWT1 201738Z 15004KT 34/18 A3009 RMK A01 T03380184  RH  040%=      5-min Rain = 0
KWT1 201739Z 18006KT 34/19 A3009 RMK A01 T03400185  RH  040%=      5-min Rain = 0
KWT1 201740Z 17005G11KT 34/19 A3009 RMK A01 T03420185  RH  039%=      5-min Rain = 0
KWT1 201741Z 17011KT 35/18 A3009 RMK A01 T03460181  RH  038%=      5-min Rain = 0
KWT1 201742Z 17010KT 35/18 A3009 RMK A01 T03470180  RH  037%=      5-min Rain = 0
KWT1 201743Z 18009KT 35/18 A301 RMK A01 T03480178  RH  037%=      5-min Rain = 0
KWT1 201744Z 18009KT 35/18 A301 RMK A01 T03490179  RH  037%=      5-min Rain = 0
KWT1 201745Z 17009KT 35/18 A301 RMK A01 T03480181  RH  037%=      5-min Rain = 0
KWT1 201746Z 18007KT 35/18 A301 RMK A01 T03450182  RH  038%=      5-min Rain = 0
KWT1 201747Z 19007KT 34/18 A301 RMK A01 T03420182  RH  039%=      5-min Rain = 0
KWT1 201748Z 21002KT 34/18 A301 RMK A01 T03380179  RH  039%=      5-min Rain = 0
KWT1 201749Z 22005KT 34/18 A3009 RMK A01 T03370182  RH  040%=      5-min Rain = 0
KWT1 201750Z 20006G11KT 34/18 A3009 RMK A01 T03380182  RH  040%=      5-min Rain = 0
KWT1 201751Z 20006KT 34/18 A3009 RMK A01 T03410184  RH  039%=      5-min Rain = 0
KWT1 201752Z 21002KT 34/18 A3009 RMK A01 T03390183  RH  040%=      5-min Rain = 0
KWT1 201753Z 17008KT 34/18 A3009 RMK A01 T03410184  RH  039%=      5-min Rain = 0
KWT1 201754Z 19011KT 35/18 A3009 RMK A01 T03490183  RH  038%=      5-min Rain = 0
KWT1 201755Z 19009KT 35/18 A3009 RMK A01 T03460181  RH  038%=      5-min Rain = 0
KWT1 201756Z 17007KT 34/18 A3009 RMK A01 T03430180  RH  038%=      5-min Rain = 0
KWT1 201757Z 22004KT 34/18 A3009 RMK A01 T03430181  RH  038%=      5-min Rain = 0
KWT1 201758Z 19006KT 35/18 A3009 RMK A01 T03480181  RH  037%=      5-min Rain = 0
KWT1 201759Z 19005KT 35/18 A3009 RMK A01 T03460179  RH  037%=      5-min Rain = 0
KWT1 201800Z 21005KT 35/18 A3009 RMK A01 T03450178  RH  037%=      5-min Rain = 0
KWT1 201801Z 19002KT 34/18 A3009 RMK A01 T03430175  RH  037%=      5-min Rain = 0
KWT1 201802Z 18003KT 34/18 A3009 RMK A01 T03410177  RH  038%=      5-min Rain = 0
KWT1 201803Z 18004KT 34/18 A3009 RMK A01 T03410177  RH  038%=      5-min Rain = 0
KWT1 201804Z 19009KT 34/18 A3009 RMK A01 T03420176  RH  037%=      5-min Rain = 0
KWT1 201805Z 18009KT 34/17 A3009 RMK A01 T03430174  RH  037%=      5-min Rain = 0
KWT1 201806Z 18007KT 34/17 A3009 RMK A01 T03420174  RH  037%=      5-min Rain = 0
KWT1 201807Z 20006KT 34/18 A3009 RMK A01 T03420177  RH  037%=      5-min Rain = 0
KWT1 201808Z 19006KT 34/18 A3009 RMK A01 T03430177  RH  038%=      5-min Rain = 0
KWT1 201809Z 17007KT 34/18 A3009 RMK A01 T03410179  RH  038%=      5-min Rain = 0
KWT1 201810Z 12009KT 34/18 A3009 RMK A01 T03440180  RH  038%=      5-min Rain = 0
KWT1 201811Z 14010KT 35/18 A3009 RMK A01 T03490180  RH  037%=      5-min Rain = 0
KWT1 201812Z 13008KT 35/18 A3009 RMK A01 T03500177  RH  036%=      5-min Rain = 0
KWT1 201813Z 13007KT 35/18 A3009 RMK A01 T03500178  RH  036%=      5-min Rain = 0
KWT1 201814Z 11006KT 35/18 A3009 RMK A01 T03530180  RH  036%=      5-min Rain = 0
KWT1 201815Z 14006KT 36/18 A3009 RMK A01 T03560180  RH  035%=      5-min Rain = 0
KWT1 201816Z 16008KT 36/18 A3009 RMK A01 T03580177  RH  034%=      5-min Rain = 0
KWT1 201817Z 14008G13KT 36/18 A3009 RMK A01 T03550177  RH  035%=      5-min Rain = 0
KWT1 201818Z 14012KT 36/18 A3009 RMK A01 T03560179  RH  035%=      5-min Rain = 0
KWT1 201819Z 13010KT 36/18 A3009 RMK A01 T03570178  RH  035%=      5-min Rain = 0
KWT1 201820Z 14009KT 35/18 A3009 RMK A01 T03530177  RH  035%=      5-min Rain = 0
KWT1 201821Z 14010KT 35/18 A3009 RMK A01 T03510175  RH  035%=      5-min Rain = 0
KWT1 201822Z 14008KT 35/17 A3009 RMK A01 T03500174  RH  035%=      5-min Rain = 0
KWT1 201823Z 14006KT 35/17 A3009 RMK A01 T03500171  RH  035%=      5-min Rain = 0
KWT1 201824Z 10007KT 35/17 A3009 RMK A01 T03490169  RH  034%=      5-min Rain = 0
KWT1 201825Z 12006KT 35/17 A3009 RMK A01 T03500168  RH  034%=      5-min Rain = 0
KWT1 201826Z 17006KT 35/17 A3009 RMK A01 T03500171  RH  035%=      5-min Rain = 0
KWT1 201827Z 21007KT 35/17 A3009 RMK A01 T03510174  RH  035%=      5-min Rain = 0
KWT1 201828Z 21007KT 35/18 A3009 RMK A01 T03480175  RH  036%=      5-min Rain = 0
KWT1 201829Z 20004KT 35/17 A3008 RMK A01 T03460174  RH  036%=      5-min Rain = 0
KWT1 201830Z 22006KT 35/18 A3008 RMK A01 T03450176  RH  037%=      5-min Rain = 0
KWT1 201831Z 21003KT 35/17 A3008 RMK A01 T03450174  RH  036%=      5-min Rain = 0
KWT1 201832Z 26002KT 34/17 A3008 RMK A01 T03440173  RH  036%=      5-min Rain = 0
KWT1 201833Z 21004KT 34/17 A3008 RMK A01 T03440174  RH  037%=      5-min Rain = 0
KWT1 201834Z 19005KT 35/18 A3008 RMK A01 T03450175  RH  037%=      5-min Rain = 0
KWT1 201835Z 14006G11KT 35/17 A3008 RMK A01 T03510173  RH  035%=      5-min Rain = 0
KWT1 201836Z 13010KT 36/17 A3008 RMK A01 T03570168  RH  033%=      5-min Rain = 0
KWT1 201837Z 13008KT 36/17 A3008 RMK A01 T03580169  RH  033%=      5-min Rain = 0
KWT1 201838Z 15011KT 36/17 A3008 RMK A01 T03600167  RH  032%=      5-min Rain = 0
KWT1 201839Z 14010KT 36/16 A3008 RMK A01 T03580162  RH  031%=      5-min Rain = 0
KWT1 201840Z 14009KT 36/17 A3008 RMK A01 T03550165  RH  032%=      5-min Rain = 0
KWT1 201841Z 16010KT 35/17 A3008 RMK A01 T03540169  RH  033%=      5-min Rain = 0
KWT1 201842Z 14006G11KT 35/17 A3008 RMK A01 T03530170  RH  034%=      5-min Rain = 0
KWT1 201843Z 16004KT 35/17 A3008 RMK A01 T03520171  RH  034%=      5-min Rain = 0
KWT1 201844Z 18004G9KT 35/17 A3008 RMK A01 T03540165  RH  033%=      5-min Rain = 0
KWT1 201845Z 14003KT 35/17 A3008 RMK A01 T03530166  RH  033%=      5-min Rain = 0
KWT1 201846Z 14007KT 35/17 A3008 RMK A01 T03540165  RH  033%=      5-min Rain = 0
KWT1 201847Z 14007KT 35/16 A3008 RMK A01 T03530164  RH  033%=      5-min Rain = 0
KWT1 201848Z 16004KT 35/16 A3008 RMK A01 T03510163  RH  033%=      5-min Rain = 0
KWT1 201849Z 16000KT 35/16 A3008 RMK A01 T03500162  RH  033%=      5-min Rain = 0
KWT1 201850Z 01000KT 35/16 A3008 RMK A01 T03510160  RH  032%=      5-min Rain = 0
KWT1 201851Z 14001KT 35/16 A3008 RMK A01 T03510160  RH  032%=      5-min Rain = 0
KWT1 201852Z 17005KT 35/16 A3008 RMK A01 T03530161  RH  032%=      5-min Rain = 0
KWT1 201853Z 14009KT 36/17 A3008 RMK A01 T03560169  RH  033%=      5-min Rain = 0
KWT1 201854Z 16010KT 36/17 A3007 RMK A01 T03590172  RH  033%=      5-min Rain = 0
KWT1 201855Z 17010KT 36/17 A3007 RMK A01 T03590172  RH  033%=      5-min Rain = 0
KWT1 201856Z 15007KT 36/17 A3007 RMK A01 T03570172  RH  034%=      5-min Rain = 0
KWT1 201857Z 16004KT 36/17 A3007 RMK A01 T03580173  RH  034%=      5-min Rain = 0
KWT1 201858Z 17005KT 36/17 A3007 RMK A01 T03570172  RH  034%=      5-min Rain = 0
KWT1 201859Z 16005KT 36/17 A3007 RMK A01 T03560173  RH  034%=      5-min Rain = 0
KWT1 201900Z 13011KT 36/17 A3007 RMK A01 T03580171  RH  033%=      5-min Rain = 0
KWT1 201901Z 13011KT 36/17 A3007 RMK A01 T03600167  RH  032%=      5-min Rain = 0
KWT1 201902Z 16010KT 36/17 A3007 RMK A01 T03620171  RH  032%=      5-min Rain = 0
KWT1 201903Z 18009KT 36/17 A3007 RMK A01 T03600171  RH  033%=      5-min Rain = 0
KWT1 201904Z 18008KT 36/17 A3007 RMK A01 T03580171  RH  033%=      5-min Rain = 0
KWT1 201905Z 18006KT 36/17 A3007 RMK A01 T03560171  RH  034%=      5-min Rain = 0
KWT1 201906Z 17007KT 36/17 A3007 RMK A01 T03580170  RH  033%=      5-min Rain = 0
KWT1 201907Z 18007KT 36/17 A3007 RMK A01 T03580169  RH  033%=      5-min Rain = 0
KWT1 201908Z 19009KT 36/17 A3007 RMK A01 T03580170  RH  033%=      5-min Rain = 0
KWT1 201909Z 19009KT 36/17 A3007 RMK A01 T03580168  RH  032%=      5-min Rain = 0
KWT1 201910Z 18009KT 36/17 A3007 RMK A01 T03560168  RH  033%=      5-min Rain = 0
KWT1 201911Z 20008KT 36/17 A3007 RMK A01 T03550167  RH  033%=      5-min Rain = 0
KWT1 201912Z 19006KT 36/17 A3007 RMK A01 T03580166  RH  032%=      5-min Rain = 0
KWT1 201913Z 14006KT 36/17 A3007 RMK A01 T03570168  RH  033%=      5-min Rain = 0
KWT1 201914Z 11008KT 36/17 A3007 RMK A01 T03590172  RH  033%=      5-min Rain = 0
KWT1 201915Z 12008KT 36/17 A3007 RMK A01 T03620173  RH  033%=      5-min Rain = 0
KWT1 201916Z 11009KT 36/17 A3007 RMK A01 T03610172  RH  033%=      5-min Rain = 0
KWT1 201917Z 12008KT 36/18 A3007 RMK A01 T03600176  RH  034%=      5-min Rain = 0
KWT1 201918Z 12008KT 36/18 A3007 RMK A01 T03600177  RH  034%=      5-min Rain = 0
KWT1 201919Z 13006KT 36/18 A3007 RMK A01 T03590177  RH  034%=      5-min Rain = 0
KWT1 201920Z 16009KT 36/18 A3007 RMK A01 T03600177  RH  034%=      5-min Rain = 0
KWT1 201921Z 16009KT 36/18 A3007 RMK A01 T03620176  RH  033%=      5-min Rain = 0
KWT1 201922Z 17006KT 36/18 A3007 RMK A01 T03620176  RH  033%=      5-min Rain = 0
KWT1 201923Z 17010KT 37/18 A3007 RMK A01 T03670177  RH  033%=      5-min Rain = 0
KWT1 201924Z 16010KT 37/17 A3007 RMK A01 T03690174  RH  032%=      5-min Rain = 0
KWT1 201925Z 16006KT 36/17 A3007 RMK A01 T03630171  RH  032%=      5-min Rain = 0
KWT1 201926Z 18008KT 36/17 A3007 RMK A01 T03610172  RH  033%=      5-min Rain = 0
KWT1 201927Z 19006KT 36/17 A3007 RMK A01 T03560171  RH  033%=      5-min Rain = 0
KWT1 201928Z 18005KT 35/17 A3007 RMK A01 T03530171  RH  034%=      5-min Rain = 0
KWT1 201929Z 18006KT 35/17 A3007 RMK A01 T03520172  RH  034%=      5-min Rain = 0
KWT1 201930Z 17005KT 35/17 A3007 RMK A01 T03510173  RH  035%=      5-min Rain = 0
KWT1 201931Z 16006KT 35/17 A3007 RMK A01 T03510172  RH  035%=      5-min Rain = 0
KWT1 201932Z 15006KT 35/17 A3007 RMK A01 T03520173  RH  035%=      5-min Rain = 0
KWT1 201933Z 16005KT 35/17 A3007 RMK A01 T03530173  RH  034%=      5-min Rain = 0
KWT1 201934Z 15009KT 35/17 A3007 RMK A01 T03540171  RH  034%=      5-min Rain = 0
KWT1 201935Z 15003KT 36/17 A3007 RMK A01 T03560169  RH  033%=      5-min Rain = 0
KWT1 201936Z 16010KT 36/17 A3006 RMK A01 T03560170  RH  033%=      5-min Rain = 0
KWT1 201937Z 13012KT 36/17 A3007 RMK A01 T03600168  RH  032%=      5-min Rain = 0
KWT1 201938Z 13010KT 36/17 A3007 RMK A01 T03630168  RH  032%=      5-min Rain = 0
KWT1 201939Z 15012KT 37/17 A3007 RMK A01 T03660169  RH  031%=      5-min Rain = 0
KWT1 201940Z 15010KT 36/17 A3007 RMK A01 T03630167  RH  032%=      5-min Rain = 0
KWT1 201941Z 15009KT 36/17 A3007 RMK A01 T03610167  RH  032%=      5-min Rain = 0
KWT1 201942Z 18006KT 36/17 A3007 RMK A01 T03580166  RH  032%=      5-min Rain = 0
KWT1 201943Z 17010KT 36/17 A3006 RMK A01 T03580165  RH  032%=      5-min Rain = 0
KWT1 201944Z 16010KT 36/17 A3007 RMK A01 T03610165  RH  031%=      5-min Rain = 0
KWT1 201945Z 13009KT 36/16 A3007 RMK A01 T03640164  RH  031%=      5-min Rain = 0
KWT1 201946Z 12006KT 36/16 A3007 RMK A01 T03640164  RH  031%=      5-min Rain = 0
KWT1 201947Z 13008G13KT 36/16 A3006 RMK A01 T03640163  RH  030%=      5-min Rain = 0
KWT1 201948Z 14003KT 36/16 A3006 RMK A01 T03610161  RH  031%=      5-min Rain = 0
KWT1 201949Z 14009KT 36/16 A3006 RMK A01 T03620163  RH  031%=      5-min Rain = 0
KWT1 201950Z 13011KT 37/16 A3006 RMK A01 T03670162  RH  030%=      5-min Rain = 0
KWT1 201951Z 14009KT 37/16 A3006 RMK A01 T03670160  RH  029%=      5-min Rain = 0
KWT1 201952Z 14007KT 37/16 A3006 RMK A01 T03660159  RH  029%=      5-min Rain = 0
KWT1 201953Z 10006KT 36/16 A3006 RMK A01 T03630162  RH  030%=      5-min Rain = 0
KWT1 201954Z 10005KT 36/16 A3006 RMK A01 T03640164  RH  031%=      5-min Rain = 0
KWT1 201955Z 12004KT 36/16 A3006 RMK A01 T03640164  RH  031%=      5-min Rain = 0
KWT1 201956Z 13005KT 36/16 A3006 RMK A01 T03630164  RH  031%=      5-min Rain = 0
KWT1 201957Z 16008KT 37/16 A3006 RMK A01 T03650161  RH  030%=      5-min Rain = 0
KWT1 201958Z 16005KT 37/16 A3006 RMK A01 T03660158  RH  029%=      5-min Rain = 0
KWT1 201959Z 18005KT 36/16 A3006 RMK A01 T03630157  RH  030%=      5-min Rain = 0
KWT1 202000Z 20004KT 36/16 A3006 RMK A01 T03630155  RH  029%=      5-min Rain = 0
KWT1 202001Z 18003KT 36/15 A3006 RMK A01 T03610154  RH  029%=      5-min Rain = 0
KWT1 202002Z 16006KT 36/16 A3006 RMK A01 T03600155  RH  030%=      5-min Rain = 0
KWT1 202003Z 17006KT 36/16 A3006 RMK A01 T03600157  RH  030%=      5-min Rain = 0
KWT1 202004Z 17007G13KT 36/16 A3006 RMK A01 T03630161  RH  030%=      5-min Rain = 0
KWT1 202005Z 16010KT 37/16 A3006 RMK A01 T03670164  RH  030%=      5-min Rain = 0
KWT1 202006Z 16009KT 37/16 A3006 RMK A01 T03660162  RH  030%=      5-min Rain = 0
KWT1 202007Z 15011KT 37/17 A3006 RMK A01 T03650165  RH  031%=      5-min Rain = 0
KWT1 202008Z 17009KT 37/17 A3006 RMK A01 T03670167  RH  031%=      5-min Rain = 0
KWT1 202009Z 16009KT 37/17 A3006 RMK A01 T03670166  RH  031%=      5-min Rain = 0
KWT1 202010Z 17007KT 36/16 A3006 RMK A01 T03620163  RH  031%=      5-min Rain = 0
KWT1 202011Z 15006KT 36/16 A3006 RMK A01 T03600164  RH  031%=      5-min Rain = 0
KWT1 202012Z 16005KT 36/16 A3006 RMK A01 T03630164  RH  031%=      5-min Rain = 0
KWT1 202013Z 18001KT 36/16 A3006 RMK A01 T03620163  RH  031%=      5-min Rain = 0
KWT1 202014Z 00001KT 36/16 A3005 RMK A01 T03620163  RH  031%=      5-min Rain = 0
KWT1 202015Z 00004KT 36/16 A3005 RMK A01 T03620162  RH  031%=      5-min Rain = 0
KWT1 202016Z 19002KT 36/16 A3005 RMK A01 T03620162  RH  031%=      5-min Rain = 0
KWT1 202017Z 16004KT 36/16 A3005 RMK A01 T03640161  RH  030%=      5-min Rain = 0
KWT1 202018Z 10008G13KT 37/16 A3005 RMK A01 T03660161  RH  030%=      5-min Rain = 0
KWT1 202019Z 12009KT 37/16 A3005 RMK A01 T03700161  RH  029%=      5-min Rain = 0
KWT1 202020Z 11007KT 37/16 A3005 RMK A01 T03710161  RH  029%=      5-min Rain = 0
KWT1 202021Z 10005KT 37/16 A3005 RMK A01 T03710163  RH  029%=      5-min Rain = 0
KWT1 202022Z 14005KT 38/16 A3005 RMK A01 T03750163  RH  029%=      5-min Rain = 0
KWT1 202023Z 18005KT 38/16 A3005 RMK A01 T03760163  RH  029%=      5-min Rain = 0
KWT1 202024Z 17007KT 38/17 A3005 RMK A01 T03750167  RH  029%=      5-min Rain = 0
KWT1 202025Z 18009KT 38/17 A3005 RMK A01 T03780168  RH  029%=      5-min Rain = 0
KWT1 202026Z 17009KT 37/17 A3005 RMK A01 T03710169  RH  030%=      5-min Rain = 0
KWT1 202027Z 15005KT 37/17 A3005 RMK A01 T03650167  RH  031%=      5-min Rain = 0
KWT1 202028Z 15004KT 36/17 A3005 RMK A01 T03630168  RH  032%=      5-min Rain = 0
KWT1 202029Z 12005KT 36/17 A3005 RMK A01 T03630168  RH  032%=      5-min Rain = 0
KWT1 202030Z 13005KT 36/17 A3005 RMK A01 T03620168  RH  032%=      5-min Rain = 0
KWT1 202031Z 18009KT 36/17 A3005 RMK A01 T03610170  RH  032%=      5-min Rain = 0
KWT1 202032Z 18007KT 36/17 A3005 RMK A01 T03600169  RH  032%=      5-min Rain = 0
KWT1 202033Z 19005KT 36/17 A3004 RMK A01 T03570169  RH  033%=      5-min Rain = 0
KWT1 202034Z 15006KT 36/17 A3005 RMK A01 T03560171  RH  033%=      5-min Rain = 0
KWT1 202035Z 18008KT 36/17 A3004 RMK A01 T03590173  RH  033%=      5-min Rain = 0
KWT1 202036Z 16009KT 36/17 A3004 RMK A01 T03630172  RH  032%=      5-min Rain = 0
KWT1 202037Z 12009KT 37/17 A3005 RMK A01 T03650173  RH  032%=      5-min Rain = 0
KWT1 202038Z 11008KT 37/17 A3004 RMK A01 T03670172  RH  032%=      5-min Rain = 0
KWT1 202039Z 09005KT 37/17 A3004 RMK A01 T03680170  RH  031%=      5-min Rain = 0
KWT1 202040Z 10007KT 37/17 A3004 RMK A01 T03690170  RH  031%=      5-min Rain = 0
KWT1 202041Z 12012KT 37/17 A3004 RMK A01 T03690168  RH  030%=      5-min Rain = 0
KWT1 202042Z 13009KT 37/16 A3004 RMK A01 T03690160  RH  029%=      5-min Rain = 0
KWT1 202043Z 12010KT 37/16 A3004 RMK A01 T03690161  RH  029%=      5-min Rain = 0
KWT1 202044Z 14008KT 37/16 A3004 RMK A01 T03690156  RH  028%=      5-min Rain = 0
KWT1 202045Z 15011KT 37/16 A3004 RMK A01 T03680162  RH  030%=      5-min Rain = 0
KWT1 202046Z 13010KT 37/17 A3004 RMK A01 T03690166  RH  030%=      5-min Rain = 0
KWT1 202047Z 12008KT 37/16 A3004 RMK A01 T03720163  RH  029%=      5-min Rain = 0
KWT1 202048Z 11007KT 37/16 A3004 RMK A01 T03710164  RH  030%=      5-min Rain = 0
KWT1 202049Z 12005KT 37/16 A3004 RMK A01 T03670164  RH  030%=      5-min Rain = 0
KWT1 202050Z 11005KT 36/17 A3004 RMK A01 T03640165  RH  031%=      5-min Rain = 0
KWT1 202051Z 10005KT 36/16 A3004 RMK A01 T03610162  RH  031%=      5-min Rain = 0
KWT1 202052Z 09004KT 36/16 A3004 RMK A01 T03590162  RH  031%=      5-min Rain = 0
KWT1 202053Z 10006KT 36/16 A3004 RMK A01 T03620161  RH  031%=      5-min Rain = 0
KWT1 202054Z 13006KT 37/16 A3004 RMK A01 T03660161  RH  030%=      5-min Rain = 0
KWT1 202055Z 14009KT 37/16 A3004 RMK A01 T03680162  RH  030%=      5-min Rain = 0
KWT1 202056Z 16009KT 37/16 A3004 RMK A01 T03690159  RH  029%=      5-min Rain = 0
KWT1 202057Z 18008KT 37/16 A3003 RMK A01 T03670155  RH  029%=      5-min Rain = 0
KWT1 202058Z 19003KT 36/16 A3003 RMK A01 T03640156  RH  029%=      5-min Rain = 0
KWT1 202059Z 17006KT 36/16 A3003 RMK A01 T03630158  RH  030%=      5-min Rain = 0
KWT1 202100Z 16007KT 36/16 A3003 RMK A01 T03620159  RH  030%=      5-min Rain = 0
KWT1 202101Z 16006KT 36/16 A3003 RMK A01 T03610161  RH  030%=      5-min Rain = 0
KWT1 202102Z 16006KT 36/16 A3003 RMK A01 T03640161  RH  030%=      5-min Rain = 0
KWT1 202103Z 19006KT 37/16 A3003 RMK A01 T03660161  RH  030%=      5-min Rain = 0
KWT1 202104Z 21006KT 37/16 A3003 RMK A01 T03680160  RH  029%=      5-min Rain = 0
KWT1 202105Z 21005KT 37/16 A3003 RMK A01 T03680159  RH  029%=      5-min Rain = 0
KWT1 202106Z 20006KT 37/16 A3003 RMK A01 T03670158  RH  029%=      5-min Rain = 0
KWT1 202107Z 10007KT 37/16 A3003 RMK A01 T03690160  RH  029%=      5-min Rain = 0
KWT1 202108Z 12005KT 37/16 A3003 RMK A01 T03720158  RH  028%=      5-min Rain = 0
KWT1 202109Z 15009G14KT 37/16 A3003 RMK A01 T03710159  RH  028%=      5-min Rain = 0
KWT1 202110Z 14012KT 37/16 A3003 RMK A01 T03730161  RH  029%=      5-min Rain = 0
KWT1 202111Z 15011KT 38/16 A3003 RMK A01 T03760161  RH  028%=      5-min Rain = 0
KWT1 202112Z 14009KT 38/16 A3003 RMK A01 T03750162  RH  029%=      5-min Rain = 0
KWT1 202113Z 10005KT 38/16 A3003 RMK A01 T03760161  RH  028%=      5-min Rain = 0
KWT1 202114Z 09005KT 38/16 A3003 RMK A01 T03770162  RH  028%=      5-min Rain = 0
KWT1 202115Z 11003KT 38/16 A3003 RMK A01 T03760163  RH  029%=      5-min Rain = 0
KWT1 202116Z 22004KT 38/16 A3002 RMK A01 T03770163  RH  028%=      5-min Rain = 0
KWT1 202117Z 21007KT 38/16 A3002 RMK A01 T03790161  RH  028%=      5-min Rain = 0
KWT1 202118Z 18009KT 38/16 A3002 RMK A01 T03780161  RH  028%=      5-min Rain = 0
KWT1 202119Z 18012KT 38/16 A3002 RMK A01 T03760163  RH  029%=      5-min Rain = 0
KWT1 202120Z 18008G13KT 37/16 A3002 RMK A01 T03730163  RH  029%=      5-min Rain = 0
KWT1 202121Z 22004KT 37/16 A3002 RMK A01 T03700163  RH  030%=      5-min Rain = 0
KWT1 202122Z 21003KT 37/16 A3002 RMK A01 T03670161  RH  030%=      5-min Rain = 0
KWT1 202123Z 17005KT 37/16 A3002 RMK A01 T03650159  RH  030%=      5-min Rain = 0
KWT1 202124Z 15004KT 37/16 A3002 RMK A01 T03650160  RH  030%=      5-min Rain = 0
KWT1 202125Z 12008KT 36/16 A3002 RMK A01 T03640162  RH  030%=      5-min Rain = 0
KWT1 202126Z 13007KT 37/17 A3002 RMK A01 T03660167  RH  031%=      5-min Rain = 0
KWT1 202127Z 13005G10KT 37/17 A3002 RMK A01 T03680166  RH  030%=      5-min Rain = 0
KWT1 202128Z 14010KT 37/17 A3002 RMK A01 T03670166  RH  030%=      5-min Rain = 0
KWT1 202129Z 16011KT 37/16 A3002 RMK A01 T03650164  RH  030%=      5-min Rain = 0
KWT1 202130Z 17011KT 36/16 A3002 RMK A01 T03640163  RH  030%=      5-min Rain = 0
KWT1 202131Z 16011KT 36/16 A3002 RMK A01 T03620161  RH  030%=      5-min Rain = 0
KWT1 202132Z 17008KT 37/16 A3002 RMK A01 T03650159  RH  030%=      5-min Rain = 0
KWT1 202133Z 17006KT 37/16 A3002 RMK A01 T03650159  RH  029%=      5-min Rain = 0
KWT1 202134Z 17005KT 37/16 A3002 RMK A01 T03650160  RH  030%=      5-min Rain = 0
KWT1 202135Z 17008KT 37/16 A3002 RMK A01 T03690161  RH  029%=      5-min Rain = 0
KWT1 202136Z 17006KT 37/16 A3002 RMK A01 T03690160  RH  029%=      5-min Rain = 0
KWT1 202137Z 18006KT 37/16 A3002 RMK A01 T03710160  RH  029%=      5-min Rain = 0
KWT1 202138Z 16006KT 37/16 A3002 RMK A01 T03700159  RH  029%=      5-min Rain = 0
KWT1 202139Z 16009KT 37/16 A3002 RMK A01 T03700162  RH  029%=      5-min Rain = 0
KWT1 202140Z 17008KT 37/16 A3002 RMK A01 T03700163  RH  030%=      5-min Rain = 0
KWT1 202141Z 16008KT 37/16 A3002 RMK A01 T03700163  RH  030%=      5-min Rain = 0
KWT1 202142Z 13012KT 37/16 A3002 RMK A01 T03720160  RH  029%=      5-min Rain = 0
KWT1 202143Z 12012KT 37/16 A3002 RMK A01 T03730157  RH  028%=      5-min Rain = 0
KWT1 202144Z 09010KT 37/16 A3002 RMK A01 T03720159  RH  028%=      5-min Rain = 0
KWT1 202145Z 10008KT 37/16 A3002 RMK A01 T03720160  RH  029%=      5-min Rain = 0
KWT1 202146Z 09007KT 37/16 A3002 RMK A01 T03720161  RH  029%=      5-min Rain = 0
KWT1 202147Z 12009KT 38/16 A3002 RMK A01 T03760164  RH  029%=      5-min Rain = 0
KWT1 202148Z 11007KT 38/16 A3002 RMK A01 T03780164  RH  029%=      5-min Rain = 0
KWT1 202149Z 09010KT 38/16 A3002 RMK A01 T03780161  RH  028%=      5-min Rain = 0
KWT1 202150Z 11008KT 38/16 A3002 RMK A01 T03760161  RH  028%=      5-min Rain = 0
KWT1 202151Z 13007G13KT 37/16 A3002 RMK A01 T03740162  RH  029%=      5-min Rain = 0
KWT1 202152Z 15010KT 38/16 A3002 RMK A01 T03760164  RH  029%=      5-min Rain = 0
KWT1 202153Z 14009KT 38/17 A3002 RMK A01 T03760165  RH  029%=      5-min Rain = 0
KWT1 202154Z 14008KT 38/16 A3002 RMK A01 T03760163  RH  029%=      5-min Rain = 0
KWT1 202155Z 14010KT 38/16 A3002 RMK A01 T03780163  RH  028%=      5-min Rain = 0
KWT1 202156Z 17012KT 38/16 A3002 RMK A01 T03800161  RH  027%=      5-min Rain = 0
KWT1 202157Z 16009KT 38/16 A3002 RMK A01 T03770159  RH  028%=      5-min Rain = 0
KWT1 202158Z 16006KT 37/16 A3002 RMK A01 T03740158  RH  028%=      5-min Rain = 0
KWT1 202159Z 15007G12KT 37/16 A3002 RMK A01 T03730160  RH  029%=      5-min Rain = 0
KWT1 202200Z 14009KT 37/16 A3002 RMK A01 T03740160  RH  028%=      5-min Rain = 0
KWT1 202201Z 13008KT 38/16 A3002 RMK A01 T03760160  RH  028%=      5-min Rain = 0
KWT1 202202Z 15007KT 38/16 A3002 RMK A01 T03770159  RH  028%=      5-min Rain = 0
KWT1 202203Z 11008KT 38/16 A3002 RMK A01 T03770160  RH  028%=      5-min Rain = 0
KWT1 202204Z 11008KT 38/16 A3002 RMK A01 T03780158  RH  027%=      5-min Rain = 0
KWT1 202205Z 12011KT 38/16 A3002 RMK A01 T03770157  RH  027%=      5-min Rain = 0
KWT1 202206Z 10007KT 38/16 A3001 RMK A01 T03750156  RH  028%=      5-min Rain = 0
KWT1 202207Z 13009KT 37/16 A3002 RMK A01 T03740156  RH  028%=      5-min Rain = 0
KWT1 202208Z 14012KT 38/15 A3001 RMK A01 T03750154  RH  027%=      5-min Rain = 0
KWT1 202209Z 14011KT 38/15 A3001 RMK A01 T03760152  RH  027%=      5-min Rain = 0
KWT1 202210Z 13009KT 38/15 A3002 RMK A01 T03770153  RH  027%=      5-min Rain = 0
KWT1 202211Z 15009KT 37/15 A3001 RMK A01 T03740154  RH  027%=      5-min Rain = 0
KWT1 202212Z 16009KT 37/16 A3001 RMK A01 T03710155  RH  028%=      5-min Rain = 0
KWT1 202213Z 14008KT 37/16 A3001 RMK A01 T03690155  RH  028%=      5-min Rain = 0
KWT1 202214Z 12009KT 37/16 A3001 RMK A01 T03710156  RH  028%=      5-min Rain = 0
KWT1 202215Z 13010KT 37/15 A3001 RMK A01 T03730154  RH  027%=      5-min Rain = 0
KWT1 202216Z 13007KT 37/15 A3001 RMK A01 T03720150  RH  027%=      5-min Rain = 0
KWT1 202217Z 12005KT 37/15 A3001 RMK A01 T03700150  RH  027%=      5-min Rain = 0
KWT1 202218Z 15011KT 37/15 A3001 RMK A01 T03700150  RH  027%=      5-min Rain = 0
KWT1 202219Z 13007KT 37/15 A3001 RMK A01 T03720147  RH  026%=      5-min Rain = 0
KWT1 202220Z 15004KT 37/15 A3001 RMK A01 T03720147  RH  026%=      5-min Rain = 0
KWT1 202221Z 17008KT 37/15 A3001 RMK A01 T03720150  RH  027%=      5-min Rain = 0
KWT1 202222Z 17006KT 37/15 A3001 RMK A01 T03720150  RH  027%=      5-min Rain = 0
KWT1 202223Z 16006KT 37/15 A3001 RMK A01 T03730150  RH  027%=      5-min Rain = 0
KWT1 202224Z 14005KT 37/15 A3001 RMK A01 T03720150  RH  027%=      5-min Rain = 0
KWT1 202225Z 14007KT 37/15 A3001 RMK A01 T03720153  RH  027%=      5-min Rain = 0
KWT1 202226Z 16010KT 37/16 A3001 RMK A01 T03740156  RH  028%=      5-min Rain = 0
KWT1 202227Z 16007KT 37/16 A3001 RMK A01 T03730160  RH  028%=      5-min Rain = 0
KWT1 202228Z 15009KT 37/16 A3001 RMK A01 T03730161  RH  029%=      5-min Rain = 0
KWT1 202229Z 12011KT 37/16 A3001 RMK A01 T03730161  RH  029%=      5-min Rain = 0
KWT1 202230Z 11013KT 37/16 A3001 RMK A01 T03720157  RH  028%=      5-min Rain = 0
KWT1 202231Z 12012KT 37/15 A3001 RMK A01 T03710153  RH  028%=      5-min Rain = 0
KWT1 202232Z 14010KT 37/15 A3001 RMK A01 T03710154  RH  028%=      5-min Rain = 0
KWT1 202233Z 13009KT 37/16 A3001 RMK A01 T03710157  RH  028%=      5-min Rain = 0
KWT1 202234Z 13010KT 37/16 A3001 RMK A01 T03700158  RH  029%=      5-min Rain = 0
KWT1 202235Z 16009KT 37/16 A3001 RMK A01 T03720155  RH  028%=      5-min Rain = 0
KWT1 202236Z 13010KT 37/15 A3001 RMK A01 T03730154  RH  027%=      5-min Rain = 0
KWT1 202237Z 13010KT 37/15 A3001 RMK A01 T03720154  RH  028%=      5-min Rain = 0
KWT1 202238Z 13013KT 37/16 A3001 RMK A01 T03740156  RH  028%=      5-min Rain = 0
KWT1 202239Z 12010KT 38/16 A3001 RMK A01 T03750155  RH  027%=      5-min Rain = 0
KWT1 202240Z 11008KT 37/15 A3001 RMK A01 T03720153  RH  027%=      5-min Rain = 0
KWT1 202241Z 12009KT 37/15 A3001 RMK A01 T03690153  RH  028%=      5-min Rain = 0
KWT1 202242Z 12013KT 37/15 A3001 RMK A01 T03700153  RH  028%=      5-min Rain = 0
KWT1 202243Z 12013KT 37/15 A3001 RMK A01 T03710151  RH  027%=      5-min Rain = 0
KWT1 202244Z 13011KT 37/15 A3001 RMK A01 T03690151  RH  027%=      5-min Rain = 0
KWT1 202245Z 12011KT 37/15 A3001 RMK A01 T03690146  RH  027%=      5-min Rain = 0
KWT1 202246Z 13009KT 37/15 A3001 RMK A01 T03690146  RH  027%=      5-min Rain = 0
KWT1 202247Z 11008KT 37/15 A3001 RMK A01 T03690147  RH  027%=      5-min Rain = 0
KWT1 202248Z 11007KT 37/15 A3001 RMK A01 T03690147  RH  027%=      5-min Rain = 0
KWT1 202249Z 13010KT 37/15 A3001 RMK A01 T03710145  RH  026%=      5-min Rain = 0
KWT1 202250Z 11008KT 37/14 A3001 RMK A01 T03720141  RH  025%=      5-min Rain = 0
KWT1 202251Z 15010G15KT 37/14 A3001 RMK A01 T03710141  RH  026%=      5-min Rain = 0
KWT1 202252Z 15011KT 37/14 A3001 RMK A01 T03720141  RH  025%=      5-min Rain = 0
KWT1 202253Z 15010KT 37/14 A3001 RMK A01 T03720140  RH  025%=      5-min Rain = 0
KWT1 202254Z 16006KT 37/14 A3001 RMK A01 T03710139  RH  025%=      5-min Rain = 0
KWT1 202255Z 17005KT 37/14 A3001 RMK A01 T03710139  RH  025%=      5-min Rain = 0
KWT1 202256Z 17004KT 37/14 A3001 RMK A01 T03690141  RH  026%=      5-min Rain = 0
KWT1 202257Z 16006KT 37/15 A3001 RMK A01 T03690146  RH  027%=      5-min Rain = 0
KWT1 202258Z 13007KT 37/15 A3001 RMK A01 T03730149  RH  027%=      5-min Rain = 0
KWT1 202259Z 13007KT 38/15 A3001 RMK A01 T03760150  RH  026%=      5-min Rain = 0
KWT1 202300Z 14010KT 37/15 A3001 RMK A01 T03740151  RH  027%=      5-min Rain = 0
KWT1 202301Z 14012KT 37/15 A3001 RMK A01 T03720152  RH  027%=      5-min Rain = 0
KWT1 202302Z 13011KT 37/15 A3001 RMK A01 T03720153  RH  027%=      5-min Rain = 0
KWT1 202303Z 14009KT 37/15 A3001 RMK A01 T03730153  RH  027%=      5-min Rain = 0
KWT1 202304Z 14007KT 37/15 A3001 RMK A01 T03730153  RH  027%=      5-min Rain = 0
KWT1 202305Z 14012KT 37/15 A3001 RMK A01 T03730149  RH  027%=      5-min Rain = 0
KWT1 202306Z 13010KT 37/15 A3001 RMK A01 T03730145  RH  026%=      5-min Rain = 0
KWT1 202307Z 14010KT 37/14 A3001 RMK A01 T03740144  RH  026%=      5-min Rain = 0
KWT1 202308Z 13009KT 37/15 A3001 RMK A01 T03730145  RH  026%=      5-min Rain = 0
KWT1 202309Z 14009KT 38/15 A3001 RMK A01 T03750147  RH  026%=      5-min Rain = 0
KWT1 202310Z 15007G12KT 37/15 A3001 RMK A01 T03740147  RH  026%=      5-min Rain = 0
KWT1 202311Z 15011KT 37/15 A3001 RMK A01 T03740146  RH  026%=      5-min Rain = 0
KWT1 202312Z 16009KT 37/14 A3001 RMK A01 T03730144  RH  026%=      5-min Rain = 0
KWT1 202313Z 13010G16KT 37/15 A3001 RMK A01 T03710145  RH  026%=      5-min Rain = 0
KWT1 202314Z 14014KT 37/15 A3001 RMK A01 T03690145  RH  026%=      5-min Rain = 0
KWT1 202315Z 13011KT 37/14 A3001 RMK A01 T03690144  RH  026%=      5-min Rain = 0
KWT1 202316Z 13010KT 37/14 A3001 RMK A01 T03690143  RH  026%=      5-min Rain = 0
KWT1 202317Z 13012G17KT 37/14 A3001 RMK A01 T03690142  RH  026%=      5-min Rain = 0
KWT1 202318Z 13013KT 37/14 A3001 RMK A01 T03690144  RH  026%=      5-min Rain = 0
KWT1 202319Z 13013KT 37/14 A3001 RMK A01 T03680144  RH  026%=      5-min Rain = 0
KWT1 202320Z 13011KT 37/14 A3001 RMK A01 T03670139  RH  026%=      5-min Rain = 0
KWT1 202321Z 12011KT 37/14 A3001 RMK A01 T03670139  RH  026%=      5-min Rain = 0
KWT1 202322Z 11009KT 37/14 A3001 RMK A01 T03660143  RH  027%=      5-min Rain = 0
KWT1 202323Z 10008KT 37/14 A3001 RMK A01 T03650143  RH  027%=      5-min Rain = 0
KWT1 202324Z 11006KT 37/14 A3001 RMK A01 T03650140  RH  026%=      5-min Rain = 0
KWT1 202325Z 13007KT 37/14 A3001 RMK A01 T03660141  RH  026%=      5-min Rain = 0
KWT1 202326Z 15007KT 37/14 A3001 RMK A01 T03670144  RH  026%=      5-min Rain = 0
KWT1 202327Z 14007KT 37/14 A3001 RMK A01 T03680140  RH  026%=      5-min Rain = 0
KWT1 202328Z 13006KT 37/14 A3001 RMK A01 T03690140  RH  025%=      5-min Rain = 0
KWT1 202329Z 14004KT 37/14 A3001 RMK A01 T03700139  RH  025%=      5-min Rain = 0
KWT1 202330Z 15007KT 37/14 A3001 RMK A01 T03690140  RH  026%=      5-min Rain = 0
KWT1 202331Z 14008KT 37/14 A3001 RMK A01 T03690143  RH  026%=      5-min Rain = 0
KWT1 202332Z 14007KT 37/14 A3001 RMK A01 T03690144  RH  026%=      5-min Rain = 0
KWT1 202333Z 15010KT 37/15 A3001 RMK A01 T03690148  RH  027%=      5-min Rain = 0
KWT1 202334Z 14008KT 37/15 A3001 RMK A01 T03680150  RH  027%=      5-min Rain = 0
KWT1 202335Z 15009KT 37/15 A3001 RMK A01 T03680149  RH  027%=      5-min Rain = 0
KWT1 202336Z 15010KT 37/15 A30 RMK A01 T03670147  RH  027%=      5-min Rain = 0
KWT1 202337Z 15012KT 37/15 A30 RMK A01 T03650145  RH  027%=      5-min Rain = 0
KWT1 202338Z 15011KT 36/14 A30 RMK A01 T03630143  RH  027%=      5-min Rain = 0
KWT1 202339Z 16011KT 36/14 A30 RMK A01 T03590142  RH  027%=      5-min Rain = 0
KWT1 202340Z 16011KT 36/14 A30 RMK A01 T03570141  RH  028%=      5-min Rain = 0
KWT1 202341Z 16012KT 36/14 A30 RMK A01 T03570141  RH  028%=      5-min Rain = 0
KWT1 202342Z 15013KT 36/14 A30 RMK A01 T03570144  RH  028%=      5-min Rain = 0
KWT1 202343Z 15011KT 36/15 A30 RMK A01 T03600147  RH  028%=      5-min Rain = 0
KWT1 202344Z 14012KT 36/15 A3001 RMK A01 T03620147  RH  028%=      5-min Rain = 0
KWT1 202345Z 14011KT 36/15 A3001 RMK A01 T03620147  RH  028%=      5-min Rain = 0
KWT1 202346Z 14009KT 36/15 A3001 RMK A01 T03620147  RH  028%=      5-min Rain = 0
KWT1 202347Z 14008KT 36/15 A3001 RMK A01 T03630147  RH  028%=      5-min Rain = 0
KWT1 202348Z 15009KT 36/15 A3001 RMK A01 T03630147  RH  028%=      5-min Rain = 0
KWT1 202349Z 14009G15KT 36/15 A30 RMK A01 T03630148  RH  028%=      5-min Rain = 0
KWT1 202350Z 14012KT 36/15 A3001 RMK A01 T03640151  RH  028%=      5-min Rain = 0
KWT1 202351Z 13009KT 36/15 A3001 RMK A01 T03640152  RH  028%=      5-min Rain = 0
KWT1 202352Z 13008KT 36/15 A3001 RMK A01 T03620152  RH  029%=      5-min Rain = 0
KWT1 202353Z 13007KT 36/15 A3001 RMK A01 T03610152  RH  029%=      5-min Rain = 0
KWT1 202354Z 15009KT 36/15 A3001 RMK A01 T03610152  RH  029%=      5-min Rain = 0
KWT1 202355Z 16009KT 36/15 A3001 RMK A01 T03610150  RH  028%=      5-min Rain = 0
KWT1 202356Z 16011KT 36/15 A30 RMK A01 T03610148  RH  028%=      5-min Rain = 0
KWT1 202357Z 17011KT 36/15 A30 RMK A01 T03610147  RH  028%=      5-min Rain = 0
KWT1 202358Z 16009KT 36/15 A30 RMK A01 T03600148  RH  028%=      5-min Rain = 0
KWT1 202359Z 15012KT 36/15 A3001 RMK A01 T03610148  RH  028%=      5-min Rain = 0
KWT1 210000Z 15011KT 36/15 A3001 RMK A01 T03620146  RH  028%=      5-min Rain = 0
KWT1 210001Z 15009KT 36/15 A3001 RMK A01 T03620145  RH  028%=      5-min Rain = 0
KWT1 210002Z 15009KT 36/14 A30 RMK A01 T03620144  RH  027%=      5-min Rain = 0
KWT1 210003Z 16011KT 36/14 A30 RMK A01 T03620142  RH  027%=      5-min Rain = 0
KWT1 210004Z 16009KT 36/14 A30 RMK A01 T03610141  RH  027%=      5-min Rain = 0
KWT1 210005Z 14007KT 36/14 A30 RMK A01 T03610143  RH  027%=      5-min Rain = 0
KWT1 210006Z 15010KT 36/14 A30 RMK A01 T03630144  RH  027%=      5-min Rain = 0
KWT1 210007Z 13011KT 36/15 A3001 RMK A01 T03630145  RH  027%=      5-min Rain = 0
KWT1 210008Z 13011KT 36/15 A3001 RMK A01 T03620146  RH  028%=      5-min Rain = 0
KWT1 210009Z 13011KT 36/15 A3001 RMK A01 T03610147  RH  028%=      5-min Rain = 0
KWT1 210010Z 14010KT 36/15 A3001 RMK A01 T03600148  RH  028%=      5-min Rain = 0
KWT1 210011Z 15010KT 36/15 A30 RMK A01 T03600145  RH  028%=      5-min Rain = 0
KWT1 210012Z 12009KT 36/14 A3001 RMK A01 T03600144  RH  028%=      5-min Rain = 0
KWT1 210013Z 12011KT 36/15 A3001 RMK A01 T03590145  RH  028%=      5-min Rain = 0
KWT1 210014Z 15010KT 36/14 A3001 RMK A01 T03590144  RH  028%=      5-min Rain = 0
KWT1 210015Z 14010KT 36/14 A3001 RMK A01 T03590143  RH  028%=      5-min Rain = 0
KWT1 210016Z 14009KT 36/14 A3001 RMK A01 T03590144  RH  028%=      5-min Rain = 0
KWT1 210017Z 14007KT 36/15 A3001 RMK A01 T03590146  RH  028%=      5-min Rain = 0
KWT1 210018Z 15006KT 36/15 A3001 RMK A01 T03590148  RH  028%=      5-min Rain = 0
KWT1 210019Z 16008KT 36/15 A3001 RMK A01 T03590149  RH  029%=      5-min Rain = 0
KWT1 210020Z 15008KT 36/15 A3001 RMK A01 T03590151  RH  029%=      5-min Rain = 0
KWT1 210021Z 16008KT 36/15 A3001 RMK A01 T03590151  RH  029%=      5-min Rain = 0
KWT1 210022Z 14008KT 36/15 A3001 RMK A01 T03580152  RH  029%=      5-min Rain = 0
KWT1 210023Z 16009KT 36/15 A3001 RMK A01 T03580153  RH  029%=      5-min Rain = 0
KWT1 210024Z 15011KT 36/15 A30 RMK A01 T03570153  RH  030%=      5-min Rain = 0
KWT1 210025Z 14010KT 36/15 A30 RMK A01 T03560152  RH  030%=      5-min Rain = 0
KWT1 210026Z 14011KT 36/15 A3001 RMK A01 T03560152  RH  030%=      5-min Rain = 0
KWT1 210027Z 14008KT 36/15 A3001 RMK A01 T03550152  RH  030%=      5-min Rain = 0
KWT1 210028Z 14008KT 36/15 A3001 RMK A01 T03550152  RH  030%=      5-min Rain = 0
KWT1 210029Z 14008KT 36/15 A3001 RMK A01 T03550152  RH  030%=      5-min Rain = 0
KWT1 210030Z 14009KT 36/15 A3001 RMK A01 T03560152  RH  030%=      5-min Rain = 0
KWT1 210031Z 14009KT 36/15 A3001 RMK A01 T03550152  RH  030%=      5-min Rain = 0
KWT1 210032Z 14008KT 36/15 A3001 RMK A01 T03550152  RH  030%=      5-min Rain = 0
KWT1 210033Z 13008KT 36/15 A3001 RMK A01 T03550152  RH  030%=      5-min Rain = 0
KWT1 210034Z 12007KT 36/15 A3001 RMK A01 T03550152  RH  030%=      5-min Rain = 0
KWT1 210035Z 12010KT 36/15 A3001 RMK A01 T03550152  RH  030%=      5-min Rain = 0
KWT1 210036Z 12010KT 35/15 A3001 RMK A01 T03540150  RH  030%=      5-min Rain = 0
KWT1 210037Z 13008KT 35/15 A3001 RMK A01 T03530150  RH  030%=      5-min Rain = 0
KWT1 210038Z 13010KT 35/15 A3001 RMK A01 T03530149  RH  030%=      5-min Rain = 0
KWT1 210039Z 14009KT 35/15 A3001 RMK A01 T03530148  RH  030%=      5-min Rain = 0
KWT1 210040Z 13007KT 35/15 A3001 RMK A01 T03530149  RH  030%=      5-min Rain = 0
KWT1 210041Z 13007KT 35/15 A3001 RMK A01 T03520149  RH  030%=      5-min Rain = 0
KWT1 210042Z 13008KT 35/15 A3001 RMK A01 T03520149  RH  030%=      5-min Rain = 0
KWT1 210043Z 13006KT 35/15 A3001 RMK A01 T03520149  RH  030%=      5-min Rain = 0
KWT1 210044Z 14008KT 35/15 A3001 RMK A01 T03520149  RH  030%=      5-min Rain = 0
KWT1 210045Z 15009KT 35/15 A3001 RMK A01 T03510148  RH  030%=      5-min Rain = 0
KWT1 210046Z 14008KT 35/15 A3001 RMK A01 T03510148  RH  030%=      5-min Rain = 0
KWT1 210047Z 13009KT 35/15 A3001 RMK A01 T03510148  RH  030%=      5-min Rain = 0
KWT1 210048Z 13008KT 35/15 A3001 RMK A01 T03500148  RH  030%=      5-min Rain = 0
KWT1 210049Z 13007KT 35/15 A3001 RMK A01 T03500148  RH  030%=      5-min Rain = 0
KWT1 210050Z 13008KT 35/15 A3001 RMK A01 T03490147  RH  030%=      5-min Rain = 0
KWT1 210051Z 14008KT 35/15 A3001 RMK A01 T03490147  RH  030%=      5-min Rain = 0
KWT1 210052Z 13008KT 35/15 A3001 RMK A01 T03480146  RH  030%=      5-min Rain = 0
KWT1 210053Z 13007KT 35/15 A3001 RMK A01 T03480146  RH  030%=      5-min Rain = 0
KWT1 210054Z 13008KT 35/15 A3001 RMK A01 T03470146  RH  030%=      5-min Rain = 0
KWT1 210055Z 14008KT 35/15 A3001 RMK A01 T03470146  RH  030%=      5-min Rain = 0
KWT1 210056Z 13007KT 35/15 A3001 RMK A01 T03470146  RH  030%=      5-min Rain = 0
KWT1 210057Z 14008KT 35/15 A3001 RMK A01 T03460146  RH  030%=      5-min Rain = 0
KWT1 210058Z 14008KT 35/15 A3001 RMK A01 T03460146  RH  030%=      5-min Rain = 0
KWT1 210059Z 14008KT 35/15 A3001 RMK A01 T03460146  RH  030%=      5-min Rain = 0
KWT1 210100Z 13007KT 35/15 A3001 RMK A01 T03460146  RH  030%=      5-min Rain = 0
KWT1 210101Z 14007KT 35/15 A3001 RMK A01 T03450146  RH  030%=      5-min Rain = 0
KWT1 210102Z 13009KT 34/15 A3001 RMK A01 T03440146  RH  031%=      5-min Rain = 0
KWT1 210103Z 13007KT 34/15 A3001 RMK A01 T03430146  RH  031%=      5-min Rain = 0
KWT1 210104Z 13008KT 34/15 A3001 RMK A01 T03430146  RH  031%=      5-min Rain = 0
KWT1 210105Z 13007KT 34/15 A3001 RMK A01 T03420146  RH  031%=      5-min Rain = 0
KWT1 210106Z 13007KT 34/15 A3001 RMK A01 T03420146  RH  031%=      5-min Rain = 0
KWT1 210107Z 13007KT 34/15 A3001 RMK A01 T03410146  RH  031%=      5-min Rain = 0
KWT1 210108Z 13007KT 34/15 A3001 RMK A01 T03410146  RH  031%=      5-min Rain = 0
KWT1 210109Z 13007KT 34/15 A3001 RMK A01 T03400145  RH  031%=      5-min Rain = 0
KWT1 210110Z 13006KT 34/15 A3001 RMK A01 T03400146  RH  031%=      5-min Rain = 0
KWT1 210111Z 13005KT 34/15 A3001 RMK A01 T03390145  RH  031%=      5-min Rain = 0
KWT1 210112Z 13007KT 34/15 A3002 RMK A01 T03390145  RH  031%=      5-min Rain = 0
KWT1 210113Z 13008KT 34/15 A3001 RMK A01 T03390145  RH  031%=      5-min Rain = 0
KWT1 210114Z 13009KT 34/15 A3001 RMK A01 T03380145  RH  031%=      5-min Rain = 0
KWT1 210115Z 13008KT 34/15 A3001 RMK A01 T03390146  RH  031%=      5-min Rain = 0
KWT1 210116Z 13007KT 34/15 A3001 RMK A01 T03380146  RH  031%=      5-min Rain = 0
KWT1 210117Z 13006KT 34/15 A3001 RMK A01 T03380146  RH  032%=      5-min Rain = 0
KWT1 210118Z 13006KT 34/15 A3001 RMK A01 T03370146  RH  032%=      5-min Rain = 0
KWT1 210119Z 14006KT 34/15 A3001 RMK A01 T03360146  RH  032%=      5-min Rain = 0
KWT1 210120Z 14006KT 34/15 A3001 RMK A01 T03360147  RH  032%=      5-min Rain = 0
KWT1 210121Z 14006KT 34/15 A3001 RMK A01 T03350147  RH  032%=      5-min Rain = 0
KWT1 210122Z 14005KT 33/15 A3002 RMK A01 T03340147  RH  032%=      5-min Rain = 0
KWT1 210123Z 14005KT 33/15 A3002 RMK A01 T03340147  RH  033%=      5-min Rain = 0
KWT1 210124Z 13006KT 33/15 A3002 RMK A01 T03330147  RH  033%=      5-min Rain = 0
KWT1 210125Z 13007KT 33/15 A3002 RMK A01 T03320147  RH  033%=      5-min Rain = 0
KWT1 210126Z 13007KT 33/15 A3002 RMK A01 T03320147  RH  033%=      5-min Rain = 0
KWT1 210127Z 13007KT 33/15 A3002 RMK A01 T03320148  RH  033%=      5-min Rain = 0
KWT1 210128Z 13007KT 33/15 A3002 RMK A01 T03310148  RH  033%=      5-min Rain = 0
KWT1 210129Z 13007KT 33/15 A3002 RMK A01 T03320148  RH  033%=      5-min Rain = 0
KWT1 210130Z 13007KT 33/15 A3002 RMK A01 T03320148  RH  033%=      5-min Rain = 0
KWT1 210131Z 13007KT 33/15 A3002 RMK A01 T03310148  RH  033%=      5-min Rain = 0
KWT1 210132Z 13006KT 33/15 A3002 RMK A01 T03310148  RH  033%=      5-min Rain = 0
KWT1 210133Z 13006KT 33/15 A3002 RMK A01 T03300148  RH  033%=      5-min Rain = 0
KWT1 210134Z 14006KT 33/15 A3002 RMK A01 T03300149  RH  034%=      5-min Rain = 0
KWT1 210135Z 13006KT 33/15 A3002 RMK A01 T03280148  RH  034%=      5-min Rain = 0
KWT1 210136Z 13006KT 33/15 A3002 RMK A01 T03280149  RH  034%=      5-min Rain = 0
KWT1 210137Z 14006KT 33/15 A3002 RMK A01 T03280149  RH  034%=      5-min Rain = 0
KWT1 210138Z 13006KT 33/15 A3002 RMK A01 T03270149  RH  034%=      5-min Rain = 0
KWT1 210139Z 14006KT 33/15 A3002 RMK A01 T03270149  RH  034%=      5-min Rain = 0
KWT1 210140Z 13006KT 33/15 A3002 RMK A01 T03260149  RH  034%=      5-min Rain = 0
KWT1 210141Z 13006KT 33/15 A3002 RMK A01 T03260149  RH  035%=      5-min Rain = 0
KWT1 210142Z 13005KT 33/15 A3002 RMK A01 T03250149  RH  035%=      5-min Rain = 0
KWT1 210143Z 13005KT 33/15 A3002 RMK A01 T03250149  RH  035%=      5-min Rain = 0
KWT1 210144Z 14006KT 33/15 A3002 RMK A01 T03250150  RH  035%=      5-min Rain = 0
KWT1 210145Z 13006KT 32/15 A3002 RMK A01 T03240150  RH  035%=      5-min Rain = 0
KWT1 210146Z 13007KT 32/15 A3002 RMK A01 T03240150  RH  035%=      5-min Rain = 0
KWT1 210147Z 13007KT 32/15 A3002 RMK A01 T03240150  RH  035%=      5-min Rain = 0
KWT1 210148Z 14006KT 32/15 A3002 RMK A01 T03230150  RH  035%=      5-min Rain = 0
KWT1 210149Z 14005KT 32/15 A3002 RMK A01 T03230150  RH  035%=      5-min Rain = 0
KWT1 210150Z 13005KT 32/15 A3002 RMK A01 T03230150  RH  035%=      5-min Rain = 0
KWT1 210151Z 14006KT 32/15 A3002 RMK A01 T03220150  RH  035%=      5-min Rain = 0
KWT1 210152Z 14007KT 32/15 A3002 RMK A01 T03220150  RH  035%=      5-min Rain = 0
KWT1 210153Z 14006KT 32/15 A3002 RMK A01 T03220150  RH  035%=      5-min Rain = 0
KWT1 210154Z 14006KT 32/15 A3002 RMK A01 T03220150  RH  035%=      5-min Rain = 0
KWT1 210155Z 14007KT 32/15 A3002 RMK A01 T03220150  RH  035%=      5-min Rain = 0
KWT1 210156Z 14006KT 32/15 A3002 RMK A01 T03210150  RH  036%=      5-min Rain = 0
KWT1 210157Z 14005KT 32/15 A3002 RMK A01 T03210151  RH  036%=      5-min Rain = 0
KWT1 210158Z 14006KT 32/15 A3002 RMK A01 T03200150  RH  036%=      5-min Rain = 0
KWT1 210159Z 14006KT 32/15 A3002 RMK A01 T03200150  RH  036%=      5-min Rain = 0
KWT1 210200Z 14007KT 32/15 A3002 RMK A01 T03190150  RH  036%=      5-min Rain = 0
KWT1 210201Z 14006KT 32/15 A3003 RMK A01 T03190150  RH  036%=      5-min Rain = 0
KWT1 210202Z 14006KT 32/15 A3003 RMK A01 T03190150  RH  036%=      5-min Rain = 0
KWT1 210203Z 14005KT 32/15 A3003 RMK A01 T03180150  RH  036%=      5-min Rain = 0
KWT1 210204Z 14006KT 32/15 A3003 RMK A01 T03180151  RH  036%=      5-min Rain = 0
KWT1 210205Z 15005KT 32/15 A3003 RMK A01 T03170151  RH  037%=      5-min Rain = 0
KWT1 210206Z 15005KT 32/15 A3003 RMK A01 T03160150  RH  037%=      5-min Rain = 0
KWT1 210207Z 15005KT 32/15 A3003 RMK A01 T03160151  RH  037%=      5-min Rain = 0
KWT1 210208Z 16005KT 32/15 A3003 RMK A01 T03150150  RH  037%=      5-min Rain = 0
KWT1 210209Z 15005KT 32/15 A3003 RMK A01 T03150151  RH  037%=      5-min Rain = 0
KWT1 210210Z 15005KT 31/15 A3003 RMK A01 T03140151  RH  037%=      5-min Rain = 0
KWT1 210211Z 15005KT 31/15 A3003 RMK A01 T03130151  RH  037%=      5-min Rain = 0
KWT1 210212Z 15005KT 31/15 A3003 RMK A01 T03130151  RH  037%=      5-min Rain = 0
KWT1 210213Z 15005KT 31/15 A3003 RMK A01 T03120150  RH  037%=      5-min Rain = 0
KWT1 210214Z 15005KT 31/15 A3003 RMK A01 T03120150  RH  038%=      5-min Rain = 0
KWT1 210215Z 15005KT 31/15 A3003 RMK A01 T03110150  RH  038%=      5-min Rain = 0
KWT1 210216Z 15005KT 31/15 A3003 RMK A01 T03110151  RH  038%=      5-min Rain = 0
KWT1 210217Z 15005KT 31/15 A3003 RMK A01 T03100150  RH  038%=      5-min Rain = 0
KWT1 210218Z 15005KT 31/15 A3003 RMK A01 T03100150  RH  038%=      5-min Rain = 0
KWT1 210219Z 15005KT 31/15 A3003 RMK A01 T03090150  RH  038%=      5-min Rain = 0
KWT1 210220Z 15005KT 31/15 A3003 RMK A01 T03090150  RH  038%=      5-min Rain = 0
KWT1 210221Z 15005KT 31/15 A3003 RMK A01 T03080150  RH  038%=      5-min Rain = 0
KWT1 210222Z 15006KT 31/15 A3003 RMK A01 T03090151  RH  038%=      5-min Rain = 0
KWT1 210223Z 15006KT 31/15 A3003 RMK A01 T03080150  RH  038%=      5-min Rain = 0
KWT1 210224Z 15006KT 31/15 A3003 RMK A01 T03080150  RH  038%=      5-min Rain = 0
KWT1 210225Z 15006KT 31/15 A3003 RMK A01 T03070150  RH  038%=      5-min Rain = 0
KWT1 210226Z 15006KT 31/15 A3003 RMK A01 T03070150  RH  039%=      5-min Rain = 0
KWT1 210227Z 15006KT 31/15 A3003 RMK A01 T03070150  RH  039%=      5-min Rain = 0
KWT1 210228Z 15006KT 31/15 A3003 RMK A01 T03060150  RH  039%=      5-min Rain = 0
KWT1 210229Z 15006KT 31/15 A3003 RMK A01 T03060150  RH  039%=      5-min Rain = 0
KWT1 210230Z 15006KT 31/15 A3003 RMK A01 T03050150  RH  039%=      5-min Rain = 0
KWT1 210231Z 15006KT 31/15 A3003 RMK A01 T03050150  RH  039%=      5-min Rain = 0
KWT1 210232Z 14006KT 30/15 A3003 RMK A01 T03040150  RH  039%=      5-min Rain = 0
KWT1 210233Z 15006KT 30/15 A3003 RMK A01 T03040150  RH  039%=      5-min Rain = 0
KWT1 210234Z 15006KT 30/15 A3003 RMK A01 T03040150  RH  039%=      5-min Rain = 0
KWT1 210235Z 15005KT 30/15 A3004 RMK A01 T03040150  RH  039%=      5-min Rain = 0
KWT1 210236Z 15006KT 30/15 A3004 RMK A01 T03030150  RH  039%=      5-min Rain = 0
KWT1 210237Z 15006KT 30/15 A3004 RMK A01 T03030150  RH  039%=      5-min Rain = 0
KWT1 210238Z 15005KT 30/15 A3004 RMK A01 T03020150  RH  040%=      5-min Rain = 0
KWT1 210239Z 15006KT 30/15 A3004 RMK A01 T03020150  RH  040%=      5-min Rain = 0
KWT1 210240Z 15006KT 30/15 A3004 RMK A01 T03010150  RH  040%=      5-min Rain = 0
KWT1 210241Z 15006KT 30/15 A3004 RMK A01 T03010150  RH  040%=      5-min Rain = 0
KWT1 210242Z 15006KT 30/15 A3004 RMK A01 T03010150  RH  040%=      5-min Rain = 0
KWT1 210243Z 15006KT 30/15 A3004 RMK A01 T03010150  RH  040%=      5-min Rain = 0
KWT1 210244Z 15006KT 30/15 A3004 RMK A01 T03000150  RH  040%=      5-min Rain = 0
KWT1 210245Z 15006KT 30/15 A3004 RMK A01 T03010150  RH  040%=      5-min Rain = 0
KWT1 210246Z 15006KT 30/15 A3004 RMK A01 T03000150  RH  040%=      5-min Rain = 0
KWT1 210247Z 15006KT 30/15 A3004 RMK A01 T03000150  RH  040%=      5-min Rain = 0
KWT1 210248Z 15006KT 30/15 A3004 RMK A01 T03010150  RH  040%=      5-min Rain = 0
KWT1 210249Z 15006KT 30/15 A3004 RMK A01 T03000149  RH  040%=      5-min Rain = 0
KWT1 210250Z 15006KT 30/15 A3004 RMK A01 T03000149  RH  040%=      5-min Rain = 0
KWT1 210251Z 15006KT 30/15 A3004 RMK A01 T03000149  RH  040%=      5-min Rain = 0
KWT1 210252Z 15006KT 30/15 A3004 RMK A01 T03000150  RH  040%=      5-min Rain = 0
KWT1 210253Z 15006KT 30/15 A3004 RMK A01 T03000150  RH  040%=      5-min Rain = 0
KWT1 210254Z 15006KT 30/15 A3004 RMK A01 T03000150  RH  040%=      5-min Rain = 0
KWT1 210255Z 15006KT 30/15 A3004 RMK A01 T02990150  RH  040%=      5-min Rain = 0
KWT1 210256Z 15005KT 30/15 A3004 RMK A01 T03000150  RH  040%=      5-min Rain = 0
KWT1 210257Z 15005KT 30/15 A3004 RMK A01 T02990150  RH  040%=      5-min Rain = 0
KWT1 210258Z 15005KT 30/15 A3004 RMK A01 T02990150  RH  040%=      5-min Rain = 0
KWT1 210259Z 15005KT 30/15 A3004 RMK A01 T02980150  RH  040%=      5-min Rain = 0
KWT1 210300Z 15005KT 30/15 A3004 RMK A01 T02980150  RH  040%=      5-min Rain = 0
KWT1 210301Z 15005KT 30/15 A3004 RMK A01 T02980150  RH  041%=      5-min Rain = 0
KWT1 210302Z 15005KT 30/15 A3005 RMK A01 T02970150  RH  041%=      5-min Rain = 0
KWT1 210303Z 15005KT 30/15 A3005 RMK A01 T02970150  RH  041%=      5-min Rain = 0
KWT1 210304Z 15005KT 30/15 A3005 RMK A01 T02970150  RH  041%=      5-min Rain = 0
KWT1 210305Z 15005KT 30/15 A3005 RMK A01 T02960150  RH  041%=      5-min Rain = 0
KWT1 210306Z 15005KT 30/15 A3005 RMK A01 T02960150  RH  041%=      5-min Rain = 0
KWT1 210307Z 15005KT 30/15 A3005 RMK A01 T02960150  RH  041%=      5-min Rain = 0
KWT1 210308Z 15005KT 30/15 A3005 RMK A01 T02960150  RH  041%=      5-min Rain = 0
KWT1 210309Z 15005KT 30/15 A3005 RMK A01 T02950150  RH  041%=      5-min Rain = 0
KWT1 210310Z 15005KT 30/15 A3005 RMK A01 T02950150  RH  041%=      5-min Rain = 0
KWT1 210311Z 15005KT 30/15 A3005 RMK A01 T02950150  RH  041%=      5-min Rain = 0
KWT1 210312Z 15005KT 30/15 A3005 RMK A01 T02950150  RH  041%=      5-min Rain = 0
KWT1 210313Z 15005KT 29/15 A3005 RMK A01 T02940150  RH  041%=      5-min Rain = 0
KWT1 210314Z 15005KT 29/15 A3005 RMK A01 T02940150  RH  041%=      5-min Rain = 0
KWT1 210315Z 15005KT 29/15 A3005 RMK A01 T02940150  RH  042%=      5-min Rain = 0
KWT1 210316Z 15005KT 29/15 A3005 RMK A01 T02930150  RH  042%=      5-min Rain = 0
KWT1 210317Z 15005KT 29/15 A3005 RMK A01 T02930150  RH  042%=      5-min Rain = 0
KWT1 210318Z 15005KT 29/15 A3005 RMK A01 T02930150  RH  042%=      5-min Rain = 0
KWT1 210319Z 15005KT 29/15 A3005 RMK A01 T02930150  RH  042%=      5-min Rain = 0
KWT1 210320Z 15005KT 29/15 A3005 RMK A01 T02930150  RH  042%=      5-min Rain = 0
KWT1 210321Z 15005KT 29/15 A3005 RMK A01 T02920150  RH  042%=      5-min Rain = 0
KWT1 210322Z 15005KT 29/15 A3005 RMK A01 T02920150  RH  042%=      5-min Rain = 0
KWT1 210323Z 14006KT 29/15 A3005 RMK A01 T02910149  RH  042%=      5-min Rain = 0
KWT1 210324Z 14005KT 29/15 A3005 RMK A01 T02910150  RH  042%=      5-min Rain = 0
KWT1 210325Z 14005KT 29/15 A3005 RMK A01 T02910150  RH  042%=      5-min Rain = 0
KWT1 210326Z 14005KT 29/15 A3005 RMK A01 T02910150  RH  042%=      5-min Rain = 0
KWT1 210327Z 14006KT 29/15 A3005 RMK A01 T02900150  RH  042%=      5-min Rain = 0
KWT1 210328Z 14006KT 29/15 A3005 RMK A01 T02900150  RH  042%=      5-min Rain = 0
KWT1 210329Z 14006KT 29/15 A3005 RMK A01 T02900150  RH  042%=      5-min Rain = 0
KWT1 210330Z 14005KT 29/15 A3005 RMK A01 T02900150  RH  042%=      5-min Rain = 0
KWT1 210331Z 14006KT 29/15 A3005 RMK A01 T02900150  RH  043%=      5-min Rain = 0
KWT1 210332Z 14006KT 29/15 A3005 RMK A01 T02890150  RH  043%=      5-min Rain = 0
KWT1 210333Z 14006KT 29/15 A3005 RMK A01 T02890150  RH  043%=      5-min Rain = 0
KWT1 210334Z 14006KT 29/15 A3005 RMK A01 T02890150  RH  043%=      5-min Rain = 0
KWT1 210335Z 14006KT 29/15 A3005 RMK A01 T02890150  RH  043%=      5-min Rain = 0
KWT1 210336Z 14005KT 29/15 A3005 RMK A01 T02890150  RH  043%=      5-min Rain = 0
KWT1 210337Z 14005KT 29/15 A3005 RMK A01 T02880149  RH  043%=      5-min Rain = 0
KWT1 210338Z 14005KT 29/15 A3005 RMK A01 T02890150  RH  043%=      5-min Rain = 0
KWT1 210339Z 14005KT 29/15 A3005 RMK A01 T02880150  RH  043%=      5-min Rain = 0
KWT1 210340Z 14005KT 29/15 A3005 RMK A01 T02870149  RH  043%=      5-min Rain = 0
KWT1 210341Z 14005KT 29/15 A3005 RMK A01 T02870149  RH  043%=      5-min Rain = 0
KWT1 210342Z 14005KT 29/15 A3005 RMK A01 T02870150  RH  043%=      5-min Rain = 0
KWT1 210343Z 14005KT 29/15 A3005 RMK A01 T02870149  RH  043%=      5-min Rain = 0
KWT1 210344Z 14005KT 29/15 A3005 RMK A01 T02870150  RH  043%=      5-min Rain = 0
KWT1 210345Z 14005KT 29/15 A3005 RMK A01 T02870150  RH  043%=      5-min Rain = 0
KWT1 210346Z 14005KT 29/15 A3005 RMK A01 T02860149  RH  043%=      5-min Rain = 0
KWT1 210347Z 14004KT 29/15 A3005 RMK A01 T02860149  RH  043%=      5-min Rain = 0
KWT1 210348Z 14004KT 29/15 A3005 RMK A01 T02860149  RH  043%=      5-min Rain = 0
KWT1 210349Z 15004KT 29/15 A3005 RMK A01 T02870150  RH  043%=      5-min Rain = 0
KWT1 210350Z 14004KT 29/15 A3005 RMK A01 T02870150  RH  043%=      5-min Rain = 0
KWT1 210351Z 14005KT 29/15 A3005 RMK A01 T02870150  RH  043%=      5-min Rain = 0
KWT1 210352Z 14005KT 29/15 A3005 RMK A01 T02860150  RH  043%=      5-min Rain = 0
KWT1 210353Z 14004KT 29/15 A3005 RMK A01 T02860150  RH  043%=      5-min Rain = 0
KWT1 210354Z 14004KT 29/15 A3005 RMK A01 T02860150  RH  043%=      5-min Rain = 0
KWT1 210355Z 14005KT 29/15 A3005 RMK A01 T02850149  RH  044%=      5-min Rain = 0
KWT1 210356Z 14005KT 29/15 A3005 RMK A01 T02850149  RH  044%=      5-min Rain = 0
KWT1 210357Z 14005KT 29/15 A3005 RMK A01 T02850150  RH  044%=      5-min Rain = 0
KWT1 210358Z 14005KT 29/15 A3005 RMK A01 T02850150  RH  044%=      5-min Rain = 0
KWT1 210359Z 14004KT 29/15 A3005 RMK A01 T02850150  RH  044%=      5-min Rain = 0
KWT1 210400Z 14005KT 29/15 A3005 RMK A01 T02850150  RH  044%=      5-min Rain = 0
KWT1 210401Z 14005KT 29/15 A3005 RMK A01 T02850150  RH  044%=      5-min Rain = 0
KWT1 210402Z 15005KT 28/15 A3005 RMK A01 T02840150  RH  044%=      5-min Rain = 0
KWT1 210403Z 15005KT 28/15 A3005 RMK A01 T02840150  RH  044%=      5-min Rain = 0
KWT1 210404Z 15005KT 28/15 A3005 RMK A01 T02840150  RH  044%=      5-min Rain = 0
KWT1 210405Z 15005KT 29/15 A3005 RMK A01 T02850150  RH  044%=      5-min Rain = 0
KWT1 210406Z 15005KT 29/15 A3005 RMK A01 T02850150  RH  044%=      5-min Rain = 0
KWT1 210407Z 16005KT 28/15 A3005 RMK A01 T02840150  RH  044%=      5-min Rain = 0
KWT1 210408Z 16005KT 28/15 A3005 RMK A01 T02840150  RH  044%=      5-min Rain = 0
KWT1 210409Z 16005KT 28/15 A3005 RMK A01 T02840149  RH  044%=      5-min Rain = 0
KWT1 210410Z 16005KT 28/15 A3005 RMK A01 T02830149  RH  044%=      5-min Rain = 0
KWT1 210411Z 16006KT 28/15 A3005 RMK A01 T02830150  RH  044%=      5-min Rain = 0
KWT1 210412Z 16005KT 28/15 A3005 RMK A01 T02830149  RH  044%=      5-min Rain = 0
KWT1 210413Z 16005KT 28/15 A3005 RMK A01 T02840149  RH  044%=      5-min Rain = 0
KWT1 210414Z 16005KT 28/15 A3005 RMK A01 T02840150  RH  044%=      5-min Rain = 0
KWT1 210415Z 15005KT 28/15 A3005 RMK A01 T02840149  RH  044%=      5-min Rain = 0
KWT1 210416Z 15005KT 28/15 A3005 RMK A01 T02840149  RH  044%=      5-min Rain = 0
KWT1 210417Z 15005KT 28/15 A3005 RMK A01 T02840150  RH  044%=      5-min Rain = 0
KWT1 210418Z 15005KT 28/15 A3005 RMK A01 T02840150  RH  044%=      5-min Rain = 0
KWT1 210419Z 15005KT 29/15 A3005 RMK A01 T02850150  RH  044%=      5-min Rain = 0
KWT1 210420Z 15005KT 28/15 A3005 RMK A01 T02840149  RH  044%=      5-min Rain = 0
KWT1 210421Z 15005KT 28/15 A3005 RMK A01 T02840149  RH  044%=      5-min Rain = 0
KWT1 210422Z 15005KT 28/15 A3005 RMK A01 T02840149  RH  044%=      5-min Rain = 0
KWT1 210423Z 15005KT 28/15 A3005 RMK A01 T02840149  RH  044%=      5-min Rain = 0
KWT1 210424Z 15005KT 28/15 A3005 RMK A01 T02840150  RH  044%=      5-min Rain = 0
KWT1 210425Z 15005KT 28/15 A3005 RMK A01 T02840150  RH  044%=      5-min Rain = 0
KWT1 210426Z 15005KT 28/15 A3005 RMK A01 T02840150  RH  044%=      5-min Rain = 0
KWT1 210427Z 15006KT 28/15 A3005 RMK A01 T02830150  RH  044%=      5-min Rain = 0
KWT1 210428Z 14006KT 28/15 A3005 RMK A01 T02830150  RH  044%=      5-min Rain = 0
KWT1 210429Z 14006KT 28/15 A3005 RMK A01 T02830150  RH  044%=      5-min Rain = 0
KWT1 210430Z 14006KT 28/15 A3005 RMK A01 T02830150  RH  044%=      5-min Rain = 0
KWT1 210431Z 14006KT 28/15 A3005 RMK A01 T02830150  RH  044%=      5-min Rain = 0
KWT1 210432Z 14006KT 28/15 A3005 RMK A01 T02830150  RH  044%=      5-min Rain = 0
KWT1 210433Z 14006KT 28/15 A3005 RMK A01 T02830150  RH  044%=      5-min Rain = 0
KWT1 210434Z 14006KT 28/15 A3005 RMK A01 T02830149  RH  044%=      5-min Rain = 0
KWT1 210435Z 14006KT 28/15 A3005 RMK A01 T02840150  RH  044%=      5-min Rain = 0
KWT1 210436Z 14006KT 28/15 A3005 RMK A01 T02840149  RH  044%=      5-min Rain = 0
KWT1 210437Z 14005KT 28/15 A3005 RMK A01 T02840149  RH  044%=      5-min Rain = 0
KWT1 210438Z 14005KT 28/15 A3005 RMK A01 T02840149  RH  044%=      5-min Rain = 0
KWT1 210439Z 14005KT 28/15 A3005 RMK A01 T02840149  RH  044%=      5-min Rain = 0
KWT1 210440Z 14006KT 28/15 A3005 RMK A01 T02840150  RH  044%=      5-min Rain = 0
KWT1 210441Z 14006KT 28/15 A3005 RMK A01 T02840149  RH  044%=      5-min Rain = 0
KWT1 210442Z 13005KT 28/15 A3005 RMK A01 T02840149  RH  044%=      5-min Rain = 0
KWT1 210443Z 13005KT 28/15 A3005 RMK A01 T02840149  RH  044%=      5-min Rain = 0
KWT1 210444Z 12005KT 28/15 A3005 RMK A01 T02840149  RH  044%=      5-min Rain = 0
KWT1 210445Z 13005KT 28/15 A3005 RMK A01 T02840149  RH  044%=      5-min Rain = 0
KWT1 210446Z 13006KT 28/15 A3005 RMK A01 T02840149  RH  044%=      5-min Rain = 0
KWT1 210447Z 13006KT 28/15 A3005 RMK A01 T02840150  RH  044%=      5-min Rain = 0
KWT1 210448Z 13006KT 28/15 A3005 RMK A01 T02830149  RH  044%=      5-min Rain = 0
KWT1 210449Z 13005KT 28/15 A3005 RMK A01 T02830149  RH  044%=      5-min Rain = 0
KWT1 210450Z 13005KT 28/15 A3005 RMK A01 T02840149  RH  044%=      5-min Rain = 0
KWT1 210451Z 13005KT 28/15 A3005 RMK A01 T02840149  RH  044%=      5-min Rain = 0
KWT1 210452Z 13005KT 28/15 A3005 RMK A01 T02840149  RH  044%=      5-min Rain = 0
KWT1 210453Z 13006KT 28/15 A3005 RMK A01 T02840149  RH  044%=      5-min Rain = 0
KWT1 210454Z 14006KT 28/15 A3005 RMK A01 T02840149  RH  044%=      5-min Rain = 0
KWT1 210455Z 13005KT 28/15 A3005 RMK A01 T02840149  RH  044%=      5-min Rain = 0
KWT1 210456Z 13005KT 28/15 A3005 RMK A01 T02840149  RH  044%=      5-min Rain = 0
KWT1 210457Z 13005KT 28/15 A3005 RMK A01 T02840149  RH  044%=      5-min Rain = 0
KWT1 210458Z 13004KT 28/15 A3005 RMK A01 T02840149  RH  044%=      5-min Rain = 0
KWT1 210459Z 13004KT 28/15 A3005 RMK A01 T02840149  RH  044%=      5-min Rain = 0

Page generated in 0.1249 seconds.